Time,TemperatureF,DewpointF,PressureIn,WindDirection,WindDirectionDegrees,WindSpeedMPH,WindSpeedGustMPH,Humidity,HourlyPrecipIn,Conditions,Clouds,dailyrainin,SoftwareType,DateUTC
2013-05-17 00:01:00,61.2,58.2,29.93,WSW,247,0.0,0.0,90,0.00,,,0.00,Wunderground v.1.15,2013-05-17 04:01:00,
2013-05-17 00:02:00,61.3,58.7,29.93,WSW,247,0.0,0.0,91,0.00,,,0.00,Wunderground v.1.15,2013-05-17 04:02:00,
2013-05-17 00:03:00,61.3,58.7,29.93,WSW,247,0.0,0.0,91,0.00,,,0.00,Wunderground v.1.15,2013-05-17 04:03:00,
2013-05-17 00:04:00,61.3,58.7,29.93,WSW,247,0.0,0.0,91,0.00,,,0.00,Wunderground v.1.15,2013-05-17 04:04:00,
2013-05-17 00:06:00,61.3,58.7,29.94,WSW,247,0.0,0.0,91,0.00,,,0.00,Wunderground v.1.15,2013-05-17 04:06:00,
2013-05-17 00:08:00,61.2,58.2,29.94,WSW,247,0.0,0.0,90,0.00,,,0.00,Wunderground v.1.15,2013-05-17 04:08:00,
2013-05-17 00:09:00,61.2,58.2,29.94,WSW,247,0.0,0.0,90,0.00,,,0.00,Wunderground v.1.15,2013-05-17 04:09:00,
2013-05-17 00:12:00,61.2,58.2,29.94,WSW,247,0.0,0.0,90,0.00,,,0.00,Wunderground v.1.15,2013-05-17 04:12:00,
2013-05-17 00:13:00,61.2,58.2,29.94,WSW,247,0.0,0.0,90,0.00,,,0.00,Wunderground v.1.15,2013-05-17 04:13:00,
2013-05-17 00:15:00,61.2,58.6,29.94,WSW,247,0.0,0.0,91,0.00,,,0.00,Wunderground v.1.15,2013-05-17 04:15:00,
2013-05-17 00:18:00,61.2,58.6,29.94,WSW,247,0.0,0.0,91,0.00,,,0.00,Wunderground v.1.15,2013-05-17 04:18:00,
2013-05-17 00:19:00,61.1,58.1,29.94,WSW,247,0.0,0.0,90,0.00,,,0.00,Wunderground v.1.15,2013-05-17 04:19:00,
2013-05-17 00:21:00,61.1,58.1,29.94,WSW,247,0.0,0.0,90,0.00,,,0.00,Wunderground v.1.15,2013-05-17 04:21:00,
2013-05-17 00:22:00,61.0,58.0,29.94,WSW,247,0.0,0.0,90,0.00,,,0.00,Wunderground v.1.15,2013-05-17 04:22:00,
2013-05-17 00:24:00,60.9,57.9,29.94,WSW,247,0.0,0.0,90,0.00,,,0.00,Wunderground v.1.15,2013-05-17 04:24:00,
2013-05-17 00:25:00,60.8,57.8,29.94,WSW,247,0.0,0.0,90,0.00,,,0.00,Wunderground v.1.15,2013-05-17 04:25:00,
2013-05-17 00:27:00,60.8,58.2,29.94,WSW,247,0.0,0.0,91,0.00,,,0.00,Wunderground v.1.15,2013-05-17 04:27:00,
2013-05-17 00:31:00,60.8,58.2,29.94,WSW,247,0.0,0.0,91,0.00,,,0.00,Wunderground v.1.15,2013-05-17 04:31:00,
2013-05-17 00:32:00,60.8,58.2,29.94,WSW,247,0.0,0.0,91,0.00,,,0.00,Wunderground v.1.15,2013-05-17 04:32:00,
2013-05-17 00:33:00,60.8,58.2,29.94,WSW,247,0.0,0.0,91,0.00,,,0.00,Wunderground v.1.15,2013-05-17 04:33:00,
2013-05-17 00:34:00,60.8,58.2,29.94,WSW,247,0.0,0.0,91,0.00,,,0.00,Wunderground v.1.15,2013-05-17 04:34:00,
2013-05-17 00:36:00,60.9,58.3,29.94,WSW,247,0.0,0.0,91,0.00,,,0.00,Wunderground v.1.15,2013-05-17 04:36:00,
2013-05-17 00:38:00,60.9,58.3,29.94,WSW,247,0.0,0.0,91,0.00,,,0.00,Wunderground v.1.15,2013-05-17 04:38:00,
2013-05-17 00:40:00,61.0,58.4,29.94,WSW,247,0.0,0.0,91,0.00,,,0.00,Wunderground v.1.15,2013-05-17 04:40:00,
2013-05-17 00:41:00,61.1,58.5,29.94,WSW,247,0.0,0.0,91,0.00,,,0.00,Wunderground v.1.15,2013-05-17 04:41:00,
2013-05-17 00:45:00,61.1,58.5,29.94,WSW,247,0.0,0.0,91,0.00,,,0.00,Wunderground v.1.15,2013-05-17 04:45:00,
2013-05-17 00:47:00,61.1,58.5,29.94,WSW,247,0.0,0.0,91,0.00,,,0.00,Wunderground v.1.15,2013-05-17 04:47:00,
2013-05-17 00:49:00,61.1,58.5,29.94,WSW,247,0.0,0.0,91,0.00,,,0.00,Wunderground v.1.15,2013-05-17 04:49:00,
2013-05-17 00:50:00,61.1,58.5,29.94,WSW,247,0.0,0.0,91,0.00,,,0.00,Wunderground v.1.15,2013-05-17 04:50:00,
2013-05-17 00:51:00,61.0,58.4,29.94,WSW,247,0.0,0.0,91,0.00,,,0.00,Wunderground v.1.15,2013-05-17 04:51:00,
2013-05-17 00:53:00,60.9,58.3,29.94,WSW,247,0.0,0.0,91,0.00,,,0.00,Wunderground v.1.15,2013-05-17 04:53:00,
2013-05-17 00:55:00,60.8,58.2,29.94,WSW,247,0.0,0.0,91,0.00,,,0.00,Wunderground v.1.15,2013-05-17 04:55:00,
2013-05-17 00:56:00,60.7,58.1,29.94,WSW,247,0.0,0.0,91,0.00,,,0.00,Wunderground v.1.15,2013-05-17 04:56:00,
2013-05-17 01:00:00,60.6,58.0,29.94,WSW,247,0.0,0.0,91,0.00,,,0.00,Wunderground v.1.15,2013-05-17 05:00:00,
2013-05-17 01:01:00,60.6,58.0,29.94,WSW,247,0.0,0.0,91,0.00,,,0.00,Wunderground v.1.15,2013-05-17 05:01:00,
2013-05-17 01:03:00,60.6,58.0,29.94,WSW,247,0.0,0.0,91,0.00,,,0.00,Wunderground v.1.15,2013-05-17 05:03:00,
2013-05-17 01:05:00,60.6,58.0,29.94,WSW,247,0.0,0.0,91,0.00,,,0.00,Wunderground v.1.15,2013-05-17 05:05:00,
2013-05-17 01:08:00,60.6,58.0,29.94,WSW,247,0.0,0.0,91,0.00,,,0.00,Wunderground v.1.15,2013-05-17 05:08:00,
2013-05-17 01:09:00,60.7,58.1,29.94,WSW,247,0.0,0.0,91,0.00,,,0.00,Wunderground v.1.15,2013-05-17 05:09:00,
2013-05-17 01:10:00,60.7,58.1,29.94,WSW,247,0.0,0.0,91,0.00,,,0.00,Wunderground v.1.15,2013-05-17 05:10:00,
2013-05-17 01:11:00,60.7,58.1,29.94,WSW,247,0.0,0.0,91,0.00,,,0.00,Wunderground v.1.15,2013-05-17 05:11:00,
2013-05-17 01:13:00,60.7,58.1,29.94,WSW,247,0.0,0.0,91,0.00,,,0.00,Wunderground v.1.15,2013-05-17 05:13:00,
2013-05-17 01:15:00,60.7,58.1,29.94,WSW,247,0.0,0.0,91,0.00,,,0.00,Wunderground v.1.15,2013-05-17 05:15:00,
2013-05-17 01:17:00,60.7,58.1,29.94,WSW,247,0.0,0.0,91,0.00,,,0.00,Wunderground v.1.15,2013-05-17 05:17:00,
2013-05-17 01:19:00,60.7,58.1,29.94,WSW,247,0.0,0.0,91,0.00,,,0.00,Wunderground v.1.15,2013-05-17 05:19:00,
2013-05-17 01:21:00,60.7,58.1,29.94,WSW,247,0.0,0.0,91,0.00,,,0.00,Wunderground v.1.15,2013-05-17 05:21:00,
2013-05-17 01:22:00,60.7,58.1,29.94,WSW,247,0.0,0.0,91,0.00,,,0.00,Wunderground v.1.15,2013-05-17 05:22:00,
2013-05-17 01:23:00,60.8,58.2,29.94,WSW,247,0.0,0.0,91,0.00,,,0.00,Wunderground v.1.15,2013-05-17 05:23:00,
2013-05-17 01:27:00,60.6,58.0,29.94,WSW,247,0.0,0.0,91,0.00,,,0.00,Wunderground v.1.15,2013-05-17 05:27:00,
2013-05-17 01:28:00,60.6,58.0,29.94,WSW,247,0.0,0.0,91,0.00,,,0.00,Wunderground v.1.15,2013-05-17 05:28:00,
2013-05-17 01:30:00,60.7,58.1,29.94,WSW,247,0.0,0.0,91,0.00,,,0.00,Wunderground v.1.15,2013-05-17 05:30:00,
2013-05-17 01:31:00,60.7,58.1,29.95,WSW,247,0.0,0.0,91,0.00,,,0.00,Wunderground v.1.15,2013-05-17 05:31:00,
2013-05-17 01:36:00,60.7,58.1,29.94,WSW,247,0.0,0.0,91,0.00,,,0.00,Wunderground v.1.15,2013-05-17 05:36:00,
2013-05-17 01:37:00,60.7,58.1,29.95,WSW,247,0.0,0.0,91,0.00,,,0.00,Wunderground v.1.15,2013-05-17 05:37:00,
2013-05-17 01:39:00,60.5,57.9,29.95,WSW,247,0.0,0.0,91,0.00,,,0.00,Wunderground v.1.15,2013-05-17 05:39:00,
2013-05-17 01:41:00,60.4,57.8,29.95,WSW,247,0.0,0.0,91,0.00,,,0.00,Wunderground v.1.15,2013-05-17 05:41:00,
2013-05-17 01:42:00,60.3,57.7,29.95,WSW,247,0.0,0.0,91,0.00,,,0.00,Wunderground v.1.15,2013-05-17 05:42:00,
2013-05-17 01:44:00,60.2,57.6,29.94,WSW,247,0.0,0.0,91,0.00,,,0.00,Wunderground v.1.15,2013-05-17 05:44:00,
2013-05-17 01:45:00,60.1,57.5,29.95,WSW,247,0.0,0.0,91,0.00,,,0.00,Wunderground v.1.15,2013-05-17 05:45:00,
2013-05-17 01:47:00,59.9,57.3,29.95,WSW,247,0.0,0.0,91,0.00,,,0.00,Wunderground v.1.15,2013-05-17 05:47:00,
2013-05-17 01:48:00,59.9,57.3,29.95,WSW,247,0.0,0.0,91,0.00,,,0.00,Wunderground v.1.15,2013-05-17 05:48:00,
2013-05-17 01:53:00,59.7,57.1,29.95,WSW,247,0.0,0.0,91,0.00,,,0.00,Wunderground v.1.15,2013-05-17 05:53:00,
2013-05-17 01:55:00,59.6,57.0,29.95,WSW,247,0.0,0.0,91,0.00,,,0.00,Wunderground v.1.15,2013-05-17 05:55:00,
2013-05-17 01:57:00,59.6,57.0,29.95,WSW,247,0.0,0.0,91,0.00,,,0.00,Wunderground v.1.15,2013-05-17 05:57:00,
2013-05-17 01:58:00,59.6,57.0,29.95,WSW,247,0.0,0.0,91,0.00,,,0.00,Wunderground v.1.15,2013-05-17 05:58:00,
2013-05-17 02:00:00,59.5,56.9,29.95,WSW,247,0.0,0.0,91,0.00,,,0.00,Wunderground v.1.15,2013-05-17 06:00:00,
2013-05-17 02:01:00,59.5,56.9,29.95,WSW,247,0.0,0.0,91,0.00,,,0.00,Wunderground v.1.15,2013-05-17 06:01:00,
2013-05-17 02:06:00,59.4,56.8,29.95,WSW,247,0.0,0.0,91,0.00,,,0.00,Wunderground v.1.15,2013-05-17 06:06:00,
2013-05-17 02:07:00,59.3,56.7,29.95,WSW,247,0.0,0.0,91,0.00,,,0.00,Wunderground v.1.15,2013-05-17 06:07:00,
2013-05-17 02:11:00,59.2,56.6,29.95,WSW,247,0.0,0.0,91,0.00,,,0.00,Wunderground v.1.15,2013-05-17 06:11:00,
2013-05-17 02:12:00,59.1,56.5,29.95,WSW,247,0.0,0.0,91,0.00,,,0.00,Wunderground v.1.15,2013-05-17 06:12:00,
2013-05-17 02:13:00,59.1,56.5,29.95,WSW,247,0.0,0.0,91,0.00,,,0.00,Wunderground v.1.15,2013-05-17 06:13:00,
2013-05-17 02:16:00,59.1,56.5,29.95,WSW,247,0.0,0.0,91,0.00,,,0.00,Wunderground v.1.15,2013-05-17 06:16:00,
2013-05-17 02:17:00,59.1,56.5,29.95,WSW,247,0.0,0.0,91,0.00,,,0.00,Wunderground v.1.15,2013-05-17 06:17:00,
2013-05-17 02:18:00,59.1,56.5,29.95,WSW,247,0.0,0.0,91,0.00,,,0.00,Wunderground v.1.15,2013-05-17 06:18:00,
2013-05-17 02:19:00,59.1,56.5,29.95,WSW,247,0.0,0.0,91,0.00,,,0.00,Wunderground v.1.15,2013-05-17 06:19:00,
2013-05-17 02:22:00,59.1,56.5,29.95,WSW,247,0.0,0.0,91,0.00,,,0.00,Wunderground v.1.15,2013-05-17 06:22:00,
2013-05-17 02:26:00,59.1,56.5,29.95,WSW,247,0.0,0.0,91,0.00,,,0.00,Wunderground v.1.15,2013-05-17 06:26:00,
2013-05-17 02:27:00,59.1,56.5,29.95,WSW,247,0.0,0.0,91,0.00,,,0.00,Wunderground v.1.15,2013-05-17 06:27:00,
2013-05-17 02:28:00,59.0,56.4,29.95,WSW,247,0.0,0.0,91,0.00,,,0.00,Wunderground v.1.15,2013-05-17 06:28:00,
2013-05-17 02:29:00,59.0,56.4,29.95,WSW,247,0.0,0.0,91,0.00,,,0.00,Wunderground v.1.15,2013-05-17 06:29:00,
2013-05-17 02:32:00,58.9,56.3,29.95,WSW,247,0.0,0.0,91,0.00,,,0.00,Wunderground v.1.15,2013-05-17 06:32:00,
2013-05-17 02:33:00,58.9,56.3,29.95,WSW,247,0.0,0.0,91,0.00,,,0.00,Wunderground v.1.15,2013-05-17 06:33:00,
2013-05-17 02:38:00,59.0,56.7,29.95,WSW,247,0.0,0.0,92,0.00,,,0.00,Wunderground v.1.15,2013-05-17 06:38:00,
2013-05-17 02:39:00,59.1,56.8,29.95,WSW,247,0.0,0.0,92,0.00,,,0.00,Wunderground v.1.15,2013-05-17 06:39:00,
2013-05-17 02:41:00,59.1,56.8,29.95,WSW,247,0.0,0.0,92,0.00,,,0.00,Wunderground v.1.15,2013-05-17 06:41:00,
2013-05-17 02:44:00,59.2,56.9,29.95,WSW,247,0.0,0.0,92,0.00,,,0.00,Wunderground v.1.15,2013-05-17 06:44:00,
2013-05-17 02:46:00,59.3,57.0,29.95,WSW,247,0.0,0.0,92,0.00,,,0.00,Wunderground v.1.15,2013-05-17 06:46:00,
2013-05-17 02:47:00,59.3,57.0,29.95,WSW,247,0.0,0.0,92,0.00,,,0.00,Wunderground v.1.15,2013-05-17 06:47:00,
2013-05-17 02:48:00,59.3,57.0,29.95,WSW,247,0.0,0.0,92,0.00,,,0.00,Wunderground v.1.15,2013-05-17 06:48:00,
2013-05-17 02:50:00,59.4,57.1,29.95,WSW,247,0.0,0.0,92,0.00,,,0.00,Wunderground v.1.15,2013-05-17 06:50:00,
2013-05-17 02:53:00,59.5,57.2,29.95,WSW,247,0.0,0.0,92,0.00,,,0.00,Wunderground v.1.15,2013-05-17 06:53:00,
2013-05-17 02:54:00,59.5,57.2,29.95,WSW,247,0.0,0.0,92,0.00,,,0.00,Wunderground v.1.15,2013-05-17 06:54:00,
2013-05-17 02:56:00,59.5,57.2,29.95,WSW,247,0.0,0.0,92,0.00,,,0.00,Wunderground v.1.15,2013-05-17 06:56:00,
2013-05-17 02:59:00,59.6,57.3,29.95,WSW,247,0.0,0.0,92,0.00,,,0.00,Wunderground v.1.15,2013-05-17 06:59:00,
2013-05-17 03:02:00,59.7,57.4,29.95,WSW,247,0.0,0.0,92,0.00,,,0.00,Wunderground v.1.15,2013-05-17 07:02:00,
2013-05-17 03:05:00,59.8,57.5,29.95,WSW,247,0.0,0.0,92,0.00,,,0.00,Wunderground v.1.15,2013-05-17 07:05:00,
2013-05-17 03:06:00,59.8,57.5,29.95,WSW,247,0.0,0.0,92,0.00,,,0.00,Wunderground v.1.15,2013-05-17 07:06:00,
2013-05-17 03:07:00,59.9,57.6,29.95,WSW,247,0.0,0.0,92,0.00,,,0.00,Wunderground v.1.15,2013-05-17 07:07:00,
2013-05-17 03:09:00,60.0,57.7,29.95,WSW,247,0.0,0.0,92,0.00,,,0.00,Wunderground v.1.15,2013-05-17 07:09:00,
2013-05-17 03:11:00,60.0,57.7,29.95,WSW,247,0.0,0.0,92,0.00,,,0.00,Wunderground v.1.15,2013-05-17 07:11:00,
2013-05-17 03:14:00,60.1,57.8,29.95,WSW,247,0.0,0.0,92,0.00,,,0.00,Wunderground v.1.15,2013-05-17 07:14:00,
2013-05-17 03:15:00,60.2,57.9,29.95,WSW,247,0.0,0.0,92,0.00,,,0.00,Wunderground v.1.15,2013-05-17 07:15:00,
2013-05-17 03:17:00,60.2,57.9,29.95,WSW,247,0.0,0.0,92,0.00,,,0.00,Wunderground v.1.15,2013-05-17 07:17:00,
2013-05-17 03:20:00,60.3,58.0,29.95,WSW,247,0.0,0.0,92,0.00,,,0.00,Wunderground v.1.15,2013-05-17 07:20:00,
2013-05-17 03:22:00,60.4,58.1,29.95,WSW,247,0.0,0.0,92,0.00,,,0.00,Wunderground v.1.15,2013-05-17 07:22:00,
2013-05-17 03:24:00,60.5,58.2,29.95,WSW,247,0.0,0.0,92,0.00,,,0.00,Wunderground v.1.15,2013-05-17 07:24:00,
2013-05-17 03:26:00,60.7,58.4,29.95,WSW,247,0.0,0.0,92,0.00,,,0.00,Wunderground v.1.15,2013-05-17 07:26:00,
2013-05-17 03:28:00,60.7,58.4,29.95,WSW,247,0.0,0.0,92,0.00,,,0.00,Wunderground v.1.15,2013-05-17 07:28:00,
2013-05-17 03:31:00,60.8,58.5,29.95,WSW,247,0.0,0.0,92,0.00,,,0.00,Wunderground v.1.15,2013-05-17 07:31:00,
2013-05-17 03:32:00,60.9,58.6,29.95,WSW,247,0.0,0.0,92,0.00,,,0.00,Wunderground v.1.15,2013-05-17 07:32:00,
2013-05-17 03:36:00,61.0,58.7,29.95,WSW,247,0.0,0.0,92,0.00,,,0.00,Wunderground v.1.15,2013-05-17 07:36:00,
2013-05-17 03:38:00,61.0,58.7,29.95,WSW,247,0.0,0.0,92,0.00,,,0.00,Wunderground v.1.15,2013-05-17 07:38:00,
2013-05-17 03:39:00,61.1,58.8,29.95,WSW,247,0.0,0.0,92,0.00,,,0.00,Wunderground v.1.15,2013-05-17 07:39:00,
2013-05-17 03:41:00,61.1,58.8,29.95,WSW,247,0.0,0.0,92,0.00,,,0.00,Wunderground v.1.15,2013-05-17 07:41:00,
2013-05-17 03:42:00,61.1,58.8,29.95,WSW,247,0.0,0.0,92,0.00,,,0.00,Wunderground v.1.15,2013-05-17 07:42:00,
2013-05-17 03:43:00,61.1,58.8,29.95,WSW,247,0.0,0.0,92,0.00,,,0.00,Wunderground v.1.15,2013-05-17 07:43:00,
2013-05-17 03:45:00,61.2,58.9,29.95,WSW,247,0.0,0.0,92,0.00,,,0.00,Wunderground v.1.15,2013-05-17 07:45:00,
2013-05-17 03:48:00,61.3,59.0,29.95,WSW,247,0.0,0.0,92,0.00,,,0.00,Wunderground v.1.15,2013-05-17 07:48:00,
2013-05-17 03:51:00,61.3,59.0,29.95,WSW,247,0.0,0.0,92,0.00,,,0.00,Wunderground v.1.15,2013-05-17 07:51:00,
2013-05-17 03:55:00,61.4,59.1,29.95,WSW,247,0.0,0.0,92,0.00,,,0.00,Wunderground v.1.15,2013-05-17 07:55:00,
2013-05-17 03:57:00,61.5,59.2,29.95,WSW,247,0.0,0.0,92,0.00,,,0.00,Wunderground v.1.15,2013-05-17 07:57:00,
2013-05-17 03:58:00,61.5,59.2,29.95,WSW,247,0.0,0.0,92,0.00,,,0.00,Wunderground v.1.15,2013-05-17 07:58:00,
2013-05-17 04:00:00,61.5,59.2,29.95,WSW,247,0.0,0.0,92,0.00,,,0.00,Wunderground v.1.15,2013-05-17 08:00:00,
2013-05-17 04:01:00,61.6,59.3,29.95,WSW,247,0.0,0.0,92,0.00,,,0.00,Wunderground v.1.15,2013-05-17 08:01:00,
2013-05-17 04:04:00,61.6,59.3,29.95,WSW,247,0.0,0.0,92,0.00,,,0.00,Wunderground v.1.15,2013-05-17 08:04:00,
2013-05-17 04:05:00,61.6,59.3,29.95,WSW,247,0.0,0.0,92,0.00,,,0.00,Wunderground v.1.15,2013-05-17 08:05:00,
2013-05-17 04:06:00,61.6,59.3,29.95,WSW,247,0.0,0.0,92,0.00,,,0.00,Wunderground v.1.15,2013-05-17 08:06:00,
2013-05-17 04:10:00,61.6,59.3,29.95,WSW,247,0.0,0.0,92,0.00,,,0.00,Wunderground v.1.15,2013-05-17 08:10:00,
2013-05-17 04:11:00,61.6,59.3,29.95,WSW,247,0.0,0.0,92,0.00,,,0.00,Wunderground v.1.15,2013-05-17 08:11:00,
2013-05-17 04:12:00,61.6,59.3,29.95,WSW,247,0.0,0.0,92,0.00,,,0.00,Wunderground v.1.15,2013-05-17 08:12:00,
2013-05-17 04:13:00,61.6,59.3,29.95,WSW,247,0.0,0.0,92,0.00,,,0.00,Wunderground v.1.15,2013-05-17 08:13:00,
2013-05-17 04:14:00,61.6,59.3,29.95,WSW,247,0.0,0.0,92,0.00,,,0.00,Wunderground v.1.15,2013-05-17 08:14:00,
2013-05-17 04:18:00,61.7,59.4,29.95,WSW,247,0.0,0.0,92,0.00,,,0.00,Wunderground v.1.15,2013-05-17 08:18:00,
2013-05-17 04:19:00,61.7,59.4,29.95,WSW,247,0.0,0.0,92,0.00,,,0.00,Wunderground v.1.15,2013-05-17 08:19:00,
2013-05-17 04:20:00,61.7,59.4,29.95,WSW,247,0.0,0.0,92,0.00,,,0.00,Wunderground v.1.15,2013-05-17 08:20:00,
2013-05-17 04:25:00,61.7,59.4,29.95,WSW,247,0.0,0.0,92,0.00,,,0.00,Wunderground v.1.15,2013-05-17 08:25:00,
2013-05-17 04:26:00,61.7,59.4,29.95,WSW,247,0.0,0.0,92,0.00,,,0.00,Wunderground v.1.15,2013-05-17 08:26:00,
2013-05-17 04:27:00,61.7,59.4,29.95,WSW,247,0.0,0.0,92,0.00,,,0.00,Wunderground v.1.15,2013-05-17 08:27:00,
2013-05-17 04:30:00,61.7,59.4,29.95,WSW,247,0.0,0.0,92,0.00,,,0.00,Wunderground v.1.15,2013-05-17 08:30:00,
2013-05-17 04:33:00,61.7,59.4,29.95,WSW,247,0.0,0.0,92,0.00,,,0.00,Wunderground v.1.15,2013-05-17 08:33:00,
2013-05-17 04:35:00,61.7,59.4,29.95,WSW,247,0.0,0.0,92,0.00,,,0.00,Wunderground v.1.15,2013-05-17 08:35:00,
2013-05-17 04:36:00,61.7,59.4,29.95,WSW,247,0.0,0.0,92,0.00,,,0.00,Wunderground v.1.15,2013-05-17 08:36:00,
2013-05-17 04:37:00,61.8,59.5,29.95,WSW,247,0.0,0.0,92,0.00,,,0.00,Wunderground v.1.15,2013-05-17 08:37:00,
2013-05-17 04:41:00,61.8,59.5,29.95,WSW,247,0.0,0.0,92,0.00,,,0.00,Wunderground v.1.15,2013-05-17 08:41:00,
2013-05-17 04:42:00,61.8,59.5,29.95,WSW,247,0.0,0.0,92,0.00,,,0.00,Wunderground v.1.15,2013-05-17 08:42:00,
2013-05-17 04:43:00,61.8,59.5,29.95,WSW,247,0.0,0.0,92,0.00,,,0.00,Wunderground v.1.15,2013-05-17 08:43:00,
2013-05-17 04:48:00,61.8,59.5,29.95,WSW,247,0.0,0.0,92,0.00,,,0.00,Wunderground v.1.15,2013-05-17 08:48:00,
2013-05-17 04:49:00,61.8,59.5,29.96,WSW,247,0.0,0.0,92,0.00,,,0.00,Wunderground v.1.15,2013-05-17 08:49:00,
2013-05-17 04:51:00,61.8,59.5,29.95,WSW,247,0.0,0.0,92,0.00,,,0.00,Wunderground v.1.15,2013-05-17 08:51:00,
2013-05-17 04:52:00,61.8,59.5,29.95,WSW,247,0.0,0.0,92,0.00,,,0.00,Wunderground v.1.15,2013-05-17 08:52:00,
2013-05-17 04:54:00,61.9,59.5,29.95,WSW,247,0.0,0.0,92,0.00,,,0.00,Wunderground v.1.15,2013-05-17 08:54:00,
2013-05-17 04:55:00,61.9,59.5,29.95,WSW,247,0.0,0.0,92,0.00,,,0.00,Wunderground v.1.15,2013-05-17 08:55:00,
2013-05-17 04:58:00,61.9,59.5,29.95,WSW,247,0.0,0.0,92,0.00,,,0.00,Wunderground v.1.15,2013-05-17 08:58:00,
2013-05-17 04:59:00,61.9,59.5,29.95,WSW,247,0.0,0.0,92,0.00,,,0.00,Wunderground v.1.15,2013-05-17 08:59:00,
2013-05-17 05:02:00,61.9,59.5,29.95,WSW,247,0.0,0.0,92,0.00,,,0.00,Wunderground v.1.15,2013-05-17 09:02:00,
2013-05-17 05:05:00,62.0,59.6,29.95,WSW,247,0.0,0.0,92,0.00,,,0.00,Wunderground v.1.15,2013-05-17 09:05:00,
2013-05-17 05:06:00,62.0,59.6,29.95,WSW,247,0.0,0.0,92,0.00,,,0.00,Wunderground v.1.15,2013-05-17 09:06:00,
2013-05-17 05:07:00,62.0,59.6,29.95,WSW,247,0.0,0.0,92,0.00,,,0.00,Wunderground v.1.15,2013-05-17 09:07:00,
2013-05-17 05:08:00,62.0,59.6,29.95,WSW,247,0.0,0.0,92,0.00,,,0.00,Wunderground v.1.15,2013-05-17 09:08:00,
2013-05-17 05:13:00,62.0,59.6,29.95,WSW,247,0.0,0.0,92,0.00,,,0.00,Wunderground v.1.15,2013-05-17 09:13:00,
2013-05-17 05:14:00,62.0,59.6,29.96,WSW,247,0.0,0.0,92,0.00,,,0.00,Wunderground v.1.15,2013-05-17 09:14:00,
2013-05-17 05:18:00,62.0,59.6,29.95,WSW,247,0.0,0.0,92,0.00,,,0.00,Wunderground v.1.15,2013-05-17 09:18:00,
2013-05-17 05:19:00,62.0,59.6,29.95,WSW,247,0.0,0.0,92,0.00,,,0.00,Wunderground v.1.15,2013-05-17 09:19:00,
2013-05-17 05:21:00,62.0,59.6,29.95,WSW,247,0.0,0.0,92,0.00,,,0.00,Wunderground v.1.15,2013-05-17 09:21:00,
2013-05-17 05:23:00,62.0,59.6,29.96,WSW,247,0.0,0.0,92,0.00,,,0.00,Wunderground v.1.15,2013-05-17 09:23:00,
2013-05-17 05:27:00,62.0,59.6,29.96,WSW,247,0.0,0.0,92,0.00,,,0.00,Wunderground v.1.15,2013-05-17 09:27:00,
2013-05-17 05:29:00,62.0,59.6,29.96,WSW,247,0.0,0.0,92,0.00,,,0.00,Wunderground v.1.15,2013-05-17 09:29:00,
2013-05-17 05:30:00,62.0,59.6,29.96,WSW,247,0.0,0.0,92,0.00,,,0.00,Wunderground v.1.15,2013-05-17 09:30:00,
2013-05-17 05:34:00,62.0,59.6,29.96,WSW,247,0.0,0.0,92,0.00,,,0.00,Wunderground v.1.15,2013-05-17 09:34:00,
2013-05-17 05:36:00,62.0,59.6,29.96,WSW,247,0.0,0.0,92,0.00,,,0.00,Wunderground v.1.15,2013-05-17 09:36:00,
2013-05-17 05:38:00,62.0,59.6,29.96,WSW,247,0.0,0.0,92,0.00,,,0.00,Wunderground v.1.15,2013-05-17 09:38:00,
2013-05-17 05:39:00,62.1,59.7,29.96,WSW,247,0.0,0.0,92,0.00,,,0.00,Wunderground v.1.15,2013-05-17 09:39:00,
2013-05-17 05:40:00,62.0,59.6,29.96,WSW,247,0.0,0.0,92,0.00,,,0.00,Wunderground v.1.15,2013-05-17 09:40:00,
2013-05-17 05:43:00,62.1,59.7,29.96,WSW,247,0.0,0.0,92,0.00,,,0.00,Wunderground v.1.15,2013-05-17 09:43:00,
2013-05-17 05:44:00,62.1,59.7,29.96,WSW,247,0.0,0.0,92,0.00,,,0.00,Wunderground v.1.15,2013-05-17 09:44:00,
2013-05-17 05:46:00,62.1,59.7,29.96,WSW,247,0.0,0.0,92,0.00,,,0.00,Wunderground v.1.15,2013-05-17 09:46:00,
2013-05-17 05:50:00,62.2,59.8,29.96,WSW,247,0.0,0.0,92,0.00,,,0.00,Wunderground v.1.15,2013-05-17 09:50:00,
2013-05-17 05:52:00,62.2,59.8,29.96,WSW,247,0.0,0.0,92,0.00,,,0.00,Wunderground v.1.15,2013-05-17 09:52:00,
2013-05-17 05:54:00,62.3,59.9,29.96,WSW,247,0.0,0.0,92,0.00,,,0.00,Wunderground v.1.15,2013-05-17 09:54:00,
2013-05-17 05:56:00,62.3,59.9,29.96,WSW,247,0.0,0.0,92,0.00,,,0.00,Wunderground v.1.15,2013-05-17 09:56:00,
2013-05-17 05:57:00,62.3,59.9,29.96,WSW,247,0.0,0.0,92,0.00,,,0.00,Wunderground v.1.15,2013-05-17 09:57:00,
2013-05-17 05:59:00,62.3,59.9,29.96,WSW,247,0.0,0.0,92,0.00,,,0.00,Wunderground v.1.15,2013-05-17 09:59:00,
2013-05-17 06:04:00,62.3,59.9,29.96,WSW,247,0.0,0.0,92,0.00,,,0.00,Wunderground v.1.15,2013-05-17 10:04:00,
2013-05-17 06:05:00,62.3,59.9,29.96,WSW,247,0.0,0.0,92,0.00,,,0.00,Wunderground v.1.15,2013-05-17 10:05:00,
2013-05-17 06:07:00,62.3,59.9,29.96,WSW,247,0.0,0.0,92,0.00,,,0.00,Wunderground v.1.15,2013-05-17 10:07:00,
2013-05-17 06:09:00,62.3,59.9,29.96,WSW,247,0.0,0.0,92,0.00,,,0.00,Wunderground v.1.15,2013-05-17 10:09:00,
2013-05-17 06:10:00,62.3,59.9,29.96,WSW,247,0.0,0.0,92,0.00,,,0.00,Wunderground v.1.15,2013-05-17 10:10:00,
2013-05-17 06:13:00,62.3,59.9,29.96,WSW,247,0.0,0.0,92,0.00,,,0.00,Wunderground v.1.15,2013-05-17 10:13:00,
2013-05-17 06:15:00,62.3,59.9,29.96,WSW,247,0.0,0.0,92,0.00,,,0.00,Wunderground v.1.15,2013-05-17 10:15:00,
2013-05-17 06:16:00,62.3,59.9,29.96,WSW,247,0.0,0.0,92,0.00,,,0.00,Wunderground v.1.15,2013-05-17 10:16:00,
2013-05-17 06:17:00,62.3,59.9,29.96,WSW,247,0.0,0.0,92,0.00,,,0.00,Wunderground v.1.15,2013-05-17 10:17:00,
2013-05-17 06:19:00,62.3,59.9,29.96,WSW,247,0.0,0.0,92,0.00,,,0.00,Wunderground v.1.15,2013-05-17 10:19:00,
2013-05-17 06:23:00,62.4,60.0,29.96,WSW,247,0.0,0.0,92,0.00,,,0.00,Wunderground v.1.15,2013-05-17 10:23:00,
2013-05-17 06:26:00,62.4,60.0,29.96,WSW,247,0.0,0.0,92,0.00,,,0.00,Wunderground v.1.15,2013-05-17 10:26:00,
2013-05-17 06:28:00,62.4,60.0,29.96,WSW,247,0.0,0.0,92,0.00,,,0.00,Wunderground v.1.15,2013-05-17 10:28:00,
2013-05-17 06:30:00,62.4,60.0,29.96,WSW,247,0.0,0.0,92,0.00,,,0.00,Wunderground v.1.15,2013-05-17 10:30:00,
2013-05-17 06:32:00,62.4,60.0,29.96,WSW,247,0.0,0.0,92,0.00,,,0.00,Wunderground v.1.15,2013-05-17 10:32:00,
2013-05-17 06:34:00,62.4,60.0,29.96,WSW,247,0.0,0.0,92,0.00,,,0.00,Wunderground v.1.15,2013-05-17 10:34:00,
2013-05-17 06:36:00,62.4,60.0,29.96,WSW,247,0.0,0.0,92,0.00,,,0.00,Wunderground v.1.15,2013-05-17 10:36:00,
2013-05-17 06:38:00,62.4,60.0,29.96,WSW,247,0.0,0.0,92,0.00,,,0.00,Wunderground v.1.15,2013-05-17 10:38:00,
2013-05-17 06:39:00,62.4,60.0,29.96,WSW,247,0.0,0.0,92,0.00,,,0.00,Wunderground v.1.15,2013-05-17 10:39:00,
2013-05-17 06:40:00,62.4,60.0,29.97,WSW,247,0.0,0.0,92,0.00,,,0.00,Wunderground v.1.15,2013-05-17 10:40:00,
2013-05-17 06:43:00,62.4,60.0,29.96,WSW,247,0.0,0.0,92,0.00,,,0.00,Wunderground v.1.15,2013-05-17 10:43:00,
2013-05-17 06:46:00,62.4,60.0,29.97,WSW,247,0.0,0.0,92,0.00,,,0.00,Wunderground v.1.15,2013-05-17 10:46:00,
2013-05-17 06:48:00,62.4,60.0,29.97,WSW,247,0.0,0.0,92,0.00,,,0.00,Wunderground v.1.15,2013-05-17 10:48:00,
2013-05-17 06:49:00,62.4,60.0,29.97,WSW,247,0.0,0.0,92,0.00,,,0.00,Wunderground v.1.15,2013-05-17 10:49:00,
2013-05-17 06:52:00,62.4,60.0,29.97,WSW,247,0.0,0.0,92,0.00,,,0.00,Wunderground v.1.15,2013-05-17 10:52:00,
2013-05-17 06:53:00,62.4,60.0,29.97,WSW,247,0.0,0.0,92,0.00,,,0.00,Wunderground v.1.15,2013-05-17 10:53:00,
2013-05-17 06:54:00,62.4,60.0,29.97,WSW,247,0.0,0.0,92,0.00,,,0.00,Wunderground v.1.15,2013-05-17 10:54:00,
2013-05-17 06:56:00,62.5,60.1,29.97,WSW,247,0.0,0.0,92,0.00,,,0.00,Wunderground v.1.15,2013-05-17 10:56:00,
2013-05-17 06:58:00,62.5,60.1,29.97,WSW,247,0.0,0.0,92,0.00,,,0.00,Wunderground v.1.15,2013-05-17 10:58:00,
2013-05-17 07:00:00,62.5,60.1,29.97,WSW,247,0.0,0.0,92,0.00,,,0.00,Wunderground v.1.15,2013-05-17 11:00:00,
2013-05-17 07:01:00,62.5,60.1,29.97,WSW,247,0.0,0.0,92,0.00,,,0.00,Wunderground v.1.15,2013-05-17 11:01:00,
2013-05-17 07:04:00,62.5,60.1,29.97,WSW,247,0.0,0.0,92,0.00,,,0.00,Wunderground v.1.15,2013-05-17 11:04:00,
2013-05-17 07:06:00,62.5,60.1,29.97,WSW,247,0.0,0.0,92,0.00,,,0.00,Wunderground v.1.15,2013-05-17 11:06:00,
2013-05-17 07:08:00,62.6,60.2,29.97,WSW,247,0.0,0.0,92,0.00,,,0.00,Wunderground v.1.15,2013-05-17 11:08:00,
2013-05-17 07:10:00,62.6,60.2,29.97,WSW,247,0.0,0.0,92,0.00,,,0.00,Wunderground v.1.15,2013-05-17 11:10:00,
2013-05-17 07:13:00,62.6,60.5,29.97,WSW,247,0.0,0.0,93,0.00,,,0.00,Wunderground v.1.15,2013-05-17 11:13:00,
2013-05-17 07:15:00,62.7,60.6,29.98,WSW,247,0.0,0.0,93,0.00,,,0.00,Wunderground v.1.15,2013-05-17 11:15:00,
2013-05-17 07:16:00,62.7,60.3,29.98,WSW,247,0.0,0.0,92,0.00,,,0.00,Wunderground v.1.15,2013-05-17 11:16:00,
2013-05-17 07:19:00,62.7,60.3,29.98,WSW,247,0.0,0.0,92,0.00,,,0.00,Wunderground v.1.15,2013-05-17 11:19:00,
2013-05-17 07:20:00,62.7,60.3,29.98,WSW,247,0.0,0.0,92,0.00,,,0.00,Wunderground v.1.15,2013-05-17 11:20:00,
2013-05-17 07:23:00,62.7,60.3,29.98,WSW,247,0.0,0.0,92,0.00,,,0.00,Wunderground v.1.15,2013-05-17 11:23:00,
2013-05-17 07:24:00,62.7,60.3,29.98,WSW,247,0.0,0.0,92,0.00,,,0.00,Wunderground v.1.15,2013-05-17 11:24:00,
2013-05-17 07:25:00,62.7,60.3,29.98,WSW,247,0.0,0.0,92,0.00,,,0.00,Wunderground v.1.15,2013-05-17 11:25:00,
2013-05-17 07:27:00,62.7,60.3,29.98,WSW,247,0.0,0.0,92,0.00,,,0.00,Wunderground v.1.15,2013-05-17 11:27:00,
2013-05-17 07:28:00,62.8,60.4,29.98,WSW,247,0.0,0.0,92,0.00,,,0.00,Wunderground v.1.15,2013-05-17 11:28:00,
2013-05-17 07:31:00,62.8,60.4,29.98,WSW,247,0.0,0.0,92,0.00,,,0.00,Wunderground v.1.15,2013-05-17 11:31:00,
2013-05-17 07:32:00,62.9,60.5,29.98,WSW,247,0.0,0.0,92,0.00,,,0.00,Wunderground v.1.15,2013-05-17 11:32:00,
2013-05-17 07:33:00,62.9,60.5,29.98,WSW,247,0.0,0.0,92,0.00,,,0.00,Wunderground v.1.15,2013-05-17 11:33:00,
2013-05-17 07:35:00,62.9,60.5,29.98,WSW,247,0.0,0.0,92,0.00,,,0.00,Wunderground v.1.15,2013-05-17 11:35:00,
2013-05-17 07:38:00,63.0,60.6,29.98,WSW,247,0.0,0.0,92,0.00,,,0.00,Wunderground v.1.15,2013-05-17 11:38:00,
2013-05-17 07:39:00,63.0,60.6,29.98,WSW,247,0.0,1.0,92,0.00,,,0.00,Wunderground v.1.15,2013-05-17 11:39:00,
2013-05-17 07:40:00,63.1,61.0,29.98,WSW,247,0.0,0.0,93,0.00,,,0.00,Wunderground v.1.15,2013-05-17 11:40:00,
2013-05-17 07:43:00,63.1,61.0,29.98,WSW,247,0.0,0.0,93,0.00,,,0.00,Wunderground v.1.15,2013-05-17 11:43:00,
2013-05-17 07:46:00,63.2,61.1,29.98,WSW,247,0.0,0.0,93,0.00,,,0.00,Wunderground v.1.15,2013-05-17 11:46:00,
2013-05-17 07:47:00,63.3,61.2,29.98,WSW,247,0.0,0.0,93,0.00,,,0.00,Wunderground v.1.15,2013-05-17 11:47:00,
2013-05-17 07:49:00,63.4,61.3,29.98,WSW,247,0.0,0.0,93,0.00,,,0.00,Wunderground v.1.15,2013-05-17 11:49:00,
2013-05-17 07:50:00,63.4,61.3,29.98,WSW,247,0.0,0.0,93,0.00,,,0.00,Wunderground v.1.15,2013-05-17 11:50:00,
2013-05-17 07:51:00,63.5,61.4,29.98,WSW,247,0.0,0.0,93,0.00,,,0.00,Wunderground v.1.15,2013-05-17 11:51:00,
2013-05-17 07:53:00,63.6,61.5,29.98,WSW,247,0.0,0.0,93,0.00,,,0.00,Wunderground v.1.15,2013-05-17 11:53:00,
2013-05-17 07:54:00,63.6,61.5,29.98,WSW,247,0.0,0.0,93,0.00,,,0.00,Wunderground v.1.15,2013-05-17 11:54:00,
2013-05-17 07:57:00,63.6,61.5,29.98,WSW,247,0.0,0.0,93,0.00,,,0.00,Wunderground v.1.15,2013-05-17 11:57:00,
2013-05-17 07:58:00,63.6,61.5,29.98,WSW,247,0.0,0.0,93,0.00,,,0.00,Wunderground v.1.15,2013-05-17 11:58:00,
2013-05-17 07:59:00,63.7,61.6,29.98,WSW,247,0.0,0.0,93,0.00,,,0.00,Wunderground v.1.15,2013-05-17 11:59:00,
2013-05-17 08:01:00,63.7,61.3,29.98,WSW,247,0.0,0.0,92,0.00,,,0.00,Wunderground v.1.15,2013-05-17 12:01:00,
2013-05-17 08:06:00,63.7,61.6,29.99,WSW,247,0.0,0.0,93,0.00,,,0.00,Wunderground v.1.15,2013-05-17 12:06:00,
2013-05-17 08:09:00,63.6,61.2,29.99,WSW,247,0.0,0.0,92,0.00,,,0.00,Wunderground v.1.15,2013-05-17 12:09:00,
2013-05-17 08:10:00,63.6,61.2,29.99,WSW,247,0.0,0.0,92,0.00,,,0.00,Wunderground v.1.15,2013-05-17 12:10:00,
2013-05-17 08:14:00,63.6,61.2,29.99,WSW,247,0.0,0.0,92,0.00,,,0.00,Wunderground v.1.15,2013-05-17 12:14:00,
2013-05-17 08:15:00,63.6,61.2,29.99,WSW,247,0.0,0.0,92,0.00,,,0.00,Wunderground v.1.15,2013-05-17 12:15:00,
2013-05-17 08:17:00,63.7,61.3,29.99,WSW,247,0.0,0.0,92,0.00,,,0.00,Wunderground v.1.15,2013-05-17 12:17:00,
2013-05-17 08:18:00,63.7,61.3,29.99,WSW,247,0.0,0.0,92,0.00,,,0.00,Wunderground v.1.15,2013-05-17 12:18:00,
2013-05-17 08:19:00,63.7,61.3,29.99,WSW,247,0.0,0.0,92,0.00,,,0.00,Wunderground v.1.15,2013-05-17 12:19:00,
2013-05-17 08:21:00,63.8,61.7,29.99,WSW,247,0.0,0.0,93,0.00,,,0.00,Wunderground v.1.15,2013-05-17 12:21:00,
2013-05-17 08:23:00,63.8,61.7,29.99,WSW,247,0.0,0.0,93,0.00,,,0.00,Wunderground v.1.15,2013-05-17 12:23:00,
2013-05-17 08:27:00,63.8,61.4,29.99,WSW,247,0.0,0.0,92,0.00,,,0.00,Wunderground v.1.15,2013-05-17 12:27:00,
2013-05-17 08:29:00,63.9,61.8,29.99,WSW,247,0.0,0.0,93,0.00,,,0.00,Wunderground v.1.15,2013-05-17 12:29:00,
2013-05-17 08:30:00,63.9,61.8,29.99,WSW,247,0.0,0.0,93,0.00,,,0.00,Wunderground v.1.15,2013-05-17 12:30:00,
2013-05-17 08:31:00,64.0,61.9,29.99,WSW,247,0.0,0.0,93,0.00,,,0.00,Wunderground v.1.15,2013-05-17 12:31:00,
2013-05-17 08:32:00,64.0,61.9,29.99,WSW,247,0.0,0.0,93,0.00,,,0.00,Wunderground v.1.15,2013-05-17 12:32:00,
2013-05-17 08:36:00,64.2,62.1,29.99,WSW,247,0.0,0.0,93,0.00,,,0.00,Wunderground v.1.15,2013-05-17 12:36:00,
2013-05-17 08:39:00,64.4,62.3,29.99,WSW,247,0.0,0.0,93,0.00,,,0.00,Wunderground v.1.15,2013-05-17 12:39:00,
2013-05-17 08:40:00,64.5,62.4,29.99,WSW,247,0.0,0.0,93,0.00,,,0.00,Wunderground v.1.15,2013-05-17 12:40:00,
2013-05-17 08:41:00,64.6,62.5,29.99,WSW,247,0.0,0.0,93,0.00,,,0.00,Wunderground v.1.15,2013-05-17 12:41:00,
2013-05-17 08:44:00,64.7,62.6,29.99,WSW,247,0.0,0.0,93,0.00,,,0.00,Wunderground v.1.15,2013-05-17 12:44:00,
2013-05-17 08:45:00,64.7,62.6,29.99,WSW,247,0.0,0.0,93,0.00,,,0.00,Wunderground v.1.15,2013-05-17 12:45:00,
2013-05-17 08:46:00,64.8,62.4,30.00,WSW,247,0.0,0.0,92,0.00,,,0.00,Wunderground v.1.15,2013-05-17 12:46:00,
2013-05-17 08:48:00,65.0,62.9,29.99,WSW,247,0.0,0.0,93,0.00,,,0.00,Wunderground v.1.15,2013-05-17 12:48:00,
2013-05-17 08:51:00,65.2,63.1,30.00,WSW,247,0.0,0.0,93,0.00,,,0.00,Wunderground v.1.15,2013-05-17 12:51:00,
2013-05-17 08:53:00,65.4,63.3,30.00,WSW,247,0.0,0.0,93,0.00,,,0.00,Wunderground v.1.15,2013-05-17 12:53:00,
2013-05-17 08:54:00,65.4,63.3,30.00,WSW,247,0.0,0.0,93,0.00,,,0.00,Wunderground v.1.15,2013-05-17 12:54:00,
2013-05-17 08:56:00,65.6,63.5,30.00,WSW,247,0.0,0.0,93,0.00,,,0.00,Wunderground v.1.15,2013-05-17 12:56:00,
2013-05-17 08:57:00,65.7,63.6,30.00,WSW,247,0.0,0.0,93,0.00,,,0.00,Wunderground v.1.15,2013-05-17 12:57:00,
2013-05-17 09:00:00,66.0,63.9,30.00,WSW,247,0.0,0.0,93,0.00,,,0.00,Wunderground v.1.15,2013-05-17 13:00:00,
2013-05-17 09:02:00,66.2,64.1,30.00,WSW,247,0.0,0.0,93,0.00,,,0.00,Wunderground v.1.15,2013-05-17 13:02:00,
2013-05-17 09:03:00,66.3,64.2,30.00,WSW,247,0.0,0.0,93,0.00,,,0.00,Wunderground v.1.15,2013-05-17 13:03:00,
2013-05-17 09:04:00,66.5,64.4,30.00,WSW,247,0.0,0.0,93,0.00,,,0.00,Wunderground v.1.15,2013-05-17 13:04:00,
2013-05-17 09:06:00,66.6,64.5,30.00,WSW,247,0.0,0.0,93,0.00,,,0.00,Wunderground v.1.15,2013-05-17 13:06:00,
2013-05-17 09:08:00,66.8,64.7,30.00,WSW,247,0.0,0.0,93,0.00,,,0.00,Wunderground v.1.15,2013-05-17 13:08:00,
2013-05-17 09:11:00,67.1,65.0,30.00,WSW,247,0.0,0.0,93,0.00,,,0.00,Wunderground v.1.15,2013-05-17 13:11:00,
2013-05-17 09:13:00,67.3,65.2,30.00,WSW,247,0.0,0.0,93,0.00,,,0.00,Wunderground v.1.15,2013-05-17 13:13:00,
2013-05-17 09:14:00,67.5,65.4,30.00,WSW,247,0.0,0.0,93,0.00,,,0.00,Wunderground v.1.15,2013-05-17 13:14:00,
2013-05-17 09:16:00,67.8,65.4,30.00,WSW,247,0.0,0.0,92,0.00,,,0.00,Wunderground v.1.15,2013-05-17 13:16:00,
2013-05-17 09:18:00,68.0,65.6,30.00,WSW,247,0.0,0.0,92,0.00,,,0.00,Wunderground v.1.15,2013-05-17 13:18:00,
2013-05-17 09:20:00,68.1,65.7,30.00,WSW,247,0.0,0.0,92,0.00,,,0.00,Wunderground v.1.15,2013-05-17 13:20:00,
2013-05-17 09:22:00,68.1,65.4,30.00,NNW,331,0.0,0.0,91,0.00,,,0.00,Wunderground v.1.15,2013-05-17 13:22:00,
2013-05-17 09:24:00,68.3,65.6,30.00,North,4,0.0,0.0,91,0.00,,,0.00,Wunderground v.1.15,2013-05-17 13:24:00,
2013-05-17 09:26:00,68.3,65.6,30.00,North,4,0.0,0.0,91,0.00,,,0.00,Wunderground v.1.15,2013-05-17 13:26:00,
2013-05-17 09:27:00,68.3,65.3,30.00,North,4,0.0,0.0,90,0.00,,,0.00,Wunderground v.1.15,2013-05-17 13:27:00,
2013-05-17 09:28:00,68.4,65.7,30.00,North,4,0.0,0.0,91,0.00,,,0.00,Wunderground v.1.15,2013-05-17 13:28:00,
2013-05-17 09:29:00,68.4,65.4,30.00,North,4,0.0,0.0,90,0.00,,,0.00,Wunderground v.1.15,2013-05-17 13:29:00,
2013-05-17 09:30:00,68.5,65.4,30.00,North,4,0.0,0.0,90,0.00,,,0.00,Wunderground v.1.15,2013-05-17 13:30:00,
2013-05-17 09:34:00,69.1,66.0,30.00,North,4,0.0,0.0,90,0.00,,,0.00,Wunderground v.1.15,2013-05-17 13:34:00,
2013-05-17 09:36:00,69.4,66.3,30.00,North,4,0.0,0.0,90,0.00,,,0.00,Wunderground v.1.15,2013-05-17 13:36:00,
2013-05-17 09:40:00,69.9,66.8,30.00,North,4,0.0,0.0,90,0.00,,,0.00,Wunderground v.1.15,2013-05-17 13:40:00,
2013-05-17 09:42:00,70.3,66.9,30.00,North,4,0.0,0.0,89,0.00,,,0.00,Wunderground v.1.15,2013-05-17 13:42:00,
2013-05-17 09:43:00,70.4,67.0,30.00,North,4,0.0,0.0,89,0.00,,,0.00,Wunderground v.1.15,2013-05-17 13:43:00,
2013-05-17 09:45:00,70.6,67.2,30.00,North,4,0.0,1.0,89,0.00,,,0.00,Wunderground v.1.15,2013-05-17 13:45:00,
2013-05-17 09:48:00,71.0,67.3,30.00,North,4,0.0,1.0,88,0.00,,,0.00,Wunderground v.1.15,2013-05-17 13:48:00,
2013-05-17 09:49:00,71.2,67.5,30.00,North,4,0.0,1.0,88,0.00,,,0.00,Wunderground v.1.15,2013-05-17 13:49:00,
2013-05-17 09:51:00,71.5,67.4,30.00,North,4,0.0,0.0,87,0.00,,,0.00,Wunderground v.1.15,2013-05-17 13:51:00,
2013-05-17 09:55:00,71.8,67.7,30.01,North,4,0.0,0.0,87,0.00,,,0.00,Wunderground v.1.15,2013-05-17 13:55:00,
2013-05-17 09:56:00,71.9,67.5,30.00,North,4,0.0,0.0,86,0.00,,,0.00,Wunderground v.1.15,2013-05-17 13:56:00,
2013-05-17 09:58:00,72.0,67.2,30.00,North,4,0.0,1.0,85,0.00,,,0.00,Wunderground v.1.15,2013-05-17 13:58:00,
2013-05-17 10:01:00,72.0,66.6,30.01,North,4,0.0,0.0,83,0.00,,,0.00,Wunderground v.1.15,2013-05-17 14:01:00,
2013-05-17 10:03:00,72.1,66.6,30.01,North,4,0.0,0.0,83,0.00,,,0.00,Wunderground v.1.15,2013-05-17 14:03:00,
2013-05-17 10:04:00,72.2,66.7,30.01,North,4,0.0,0.0,83,0.00,,,0.00,Wunderground v.1.15,2013-05-17 14:04:00,
2013-05-17 10:07:00,72.4,66.9,30.00,North,4,0.0,0.0,83,0.00,,,0.00,Wunderground v.1.15,2013-05-17 14:07:00,
2013-05-17 10:09:00,72.4,66.9,30.01,North,4,0.0,0.0,83,0.00,,,0.00,Wunderground v.1.15,2013-05-17 14:09:00,
2013-05-17 10:12:00,72.2,66.4,30.01,North,4,0.0,0.0,82,0.00,,,0.00,Wunderground v.1.15,2013-05-17 14:12:00,
2013-05-17 10:13:00,72.2,66.0,30.00,North,4,0.0,0.0,81,0.00,,,0.00,Wunderground v.1.15,2013-05-17 14:13:00,
2013-05-17 10:14:00,72.2,66.0,30.00,North,4,0.0,0.0,81,0.00,,,0.00,Wunderground v.1.15,2013-05-17 14:14:00,
2013-05-17 10:16:00,72.2,66.4,30.00,North,4,0.0,0.0,82,0.00,,,0.00,Wunderground v.1.15,2013-05-17 14:16:00,
2013-05-17 10:18:00,72.2,66.4,30.00,North,4,0.0,0.0,82,0.00,,,0.00,Wunderground v.1.15,2013-05-17 14:18:00,
2013-05-17 10:20:00,72.1,66.3,30.00,NNE,23,0.0,0.0,82,0.00,,,0.00,Wunderground v.1.15,2013-05-17 14:20:00,
2013-05-17 10:21:00,72.0,66.2,30.00,NNE,23,0.0,0.0,82,0.00,,,0.00,Wunderground v.1.15,2013-05-17 14:21:00,
2013-05-17 10:22:00,72.0,66.2,30.00,NNE,23,0.0,0.0,82,0.00,,,0.00,Wunderground v.1.15,2013-05-17 14:22:00,
2013-05-17 10:23:00,72.1,66.3,30.01,NNE,23,0.0,0.0,82,0.00,,,0.00,Wunderground v.1.15,2013-05-17 14:23:00,
2013-05-17 10:26:00,72.2,66.7,30.00,NNE,23,0.0,0.0,83,0.00,,,0.00,Wunderground v.1.15,2013-05-17 14:26:00,
2013-05-17 10:28:00,72.4,66.9,30.00,NNE,23,0.0,0.0,83,0.00,,,0.00,Wunderground v.1.15,2013-05-17 14:28:00,
2013-05-17 10:29:00,72.5,67.0,30.00,NNE,23,0.0,0.0,83,0.00,,,0.00,Wunderground v.1.15,2013-05-17 14:29:00,
2013-05-17 10:31:00,72.7,67.2,30.00,NNE,23,0.0,0.0,83,0.00,,,0.00,Wunderground v.1.15,2013-05-17 14:31:00,
2013-05-17 10:32:00,72.8,67.3,30.00,NNE,23,0.0,0.0,83,0.00,,,0.00,Wunderground v.1.15,2013-05-17 14:32:00,
2013-05-17 10:34:00,72.9,67.1,30.00,NNE,23,0.0,0.0,82,0.00,,,0.00,Wunderground v.1.15,2013-05-17 14:34:00,
2013-05-17 10:35:00,73.0,67.2,30.00,NNE,23,0.0,0.0,82,0.00,,,0.00,Wunderground v.1.15,2013-05-17 14:35:00,
2013-05-17 10:36:00,73.0,66.8,30.00,NNE,23,0.0,0.0,81,0.00,,,0.00,Wunderground v.1.15,2013-05-17 14:36:00,
2013-05-17 10:39:00,73.0,66.5,30.00,NNE,23,0.0,0.0,80,0.00,,,0.00,Wunderground v.1.15,2013-05-17 14:39:00,
2013-05-17 10:40:00,73.0,66.5,30.00,NNE,23,0.0,0.0,80,0.00,,,0.00,Wunderground v.1.15,2013-05-17 14:40:00,
2013-05-17 10:42:00,73.2,67.4,30.00,NNE,23,0.0,0.0,82,0.00,,,0.00,Wunderground v.1.15,2013-05-17 14:42:00,
2013-05-17 10:43:00,73.2,67.0,30.00,NNE,23,0.0,0.0,81,0.00,,,0.00,Wunderground v.1.15,2013-05-17 14:43:00,
2013-05-17 10:45:00,73.2,66.7,30.00,NNE,23,0.0,0.0,80,0.00,,,0.00,Wunderground v.1.15,2013-05-17 14:45:00,
2013-05-17 10:49:00,73.4,67.2,30.00,NE,36,0.0,0.0,81,0.00,,,0.00,Wunderground v.1.15,2013-05-17 14:49:00,
2013-05-17 10:50:00,73.4,67.2,30.00,NE,40,0.0,0.0,81,0.00,,,0.00,Wunderground v.1.15,2013-05-17 14:50:00,
2013-05-17 10:52:00,73.5,67.3,30.00,NE,40,0.0,0.0,81,0.00,,,0.00,Wunderground v.1.15,2013-05-17 14:52:00,
2013-05-17 10:55:00,73.2,65.9,30.00,NE,40,0.0,3.0,78,0.00,,,0.00,Wunderground v.1.15,2013-05-17 14:55:00,
2013-05-17 10:57:00,73.2,66.3,30.00,ENE,58,0.0,3.0,79,0.00,,,0.00,Wunderground v.1.15,2013-05-17 14:57:00,
2013-05-17 11:00:00,73.2,66.3,30.00,ENE,59,0.0,0.0,79,0.00,,,0.00,Wunderground v.1.15,2013-05-17 15:00:00,
2013-05-17 11:01:00,73.2,66.7,30.00,ENE,59,0.0,0.0,80,0.00,,,0.00,Wunderground v.1.15,2013-05-17 15:01:00,
2013-05-17 11:02:00,73.2,66.7,30.00,ENE,59,0.0,0.0,80,0.00,,,0.00,Wunderground v.1.15,2013-05-17 15:02:00,
2013-05-17 11:04:00,73.3,67.1,30.00,ENE,59,0.0,0.0,81,0.00,,,0.00,Wunderground v.1.15,2013-05-17 15:04:00,
2013-05-17 11:06:00,73.7,67.1,30.00,ENE,59,0.0,0.0,80,0.00,,,0.00,Wunderground v.1.15,2013-05-17 15:06:00,
2013-05-17 11:08:00,74.0,66.7,30.00,NE,50,0.0,0.0,78,0.00,,,0.00,Wunderground v.1.15,2013-05-17 15:08:00,
2013-05-17 11:12:00,75.0,67.7,30.00,East,80,0.0,3.0,78,0.00,,,0.00,Wunderground v.1.15,2013-05-17 15:12:00,
2013-05-17 11:13:00,75.1,68.1,30.00,ENE,70,0.0,3.0,79,0.00,,,0.00,Wunderground v.1.15,2013-05-17 15:13:00,
2013-05-17 11:14:00,75.1,67.4,30.00,ENE,59,0.0,3.0,77,0.00,,,0.00,Wunderground v.1.15,2013-05-17 15:14:00,
2013-05-17 11:16:00,75.3,67.2,30.00,ENE,59,1.0,3.0,76,0.00,,,0.00,Wunderground v.1.15,2013-05-17 15:16:00,
2013-05-17 11:18:00,75.9,68.2,30.00,ENE,63,1.0,6.0,77,0.00,,,0.00,Wunderground v.1.15,2013-05-17 15:18:00,
2013-05-17 11:19:00,75.9,67.8,30.00,East,80,1.0,6.0,76,0.00,,,0.00,Wunderground v.1.15,2013-05-17 15:19:00,
2013-05-17 11:20:00,76.1,68.4,30.00,East,80,1.0,1.0,77,0.00,,,0.00,Wunderground v.1.15,2013-05-17 15:20:00,
2013-05-17 11:22:00,76.0,67.1,30.00,ENE,75,1.0,2.0,74,0.00,,,0.00,Wunderground v.1.15,2013-05-17 15:22:00,
2013-05-17 11:25:00,76.5,68.0,30.00,ENE,70,1.0,2.0,75,0.00,,,0.00,Wunderground v.1.15,2013-05-17 15:25:00,
2013-05-17 11:26:00,76.5,67.2,30.00,ENE,70,1.0,2.0,73,0.00,,,0.00,Wunderground v.1.15,2013-05-17 15:26:00,
2013-05-17 11:29:00,77.1,68.6,30.00,ENE,70,0.0,2.0,75,0.00,,,0.00,Wunderground v.1.15,2013-05-17 15:29:00,
2013-05-17 11:31:00,77.3,68.0,30.00,ENE,70,0.0,0.0,73,0.00,,,0.00,Wunderground v.1.15,2013-05-17 15:31:00,
2013-05-17 11:33:00,77.2,68.7,30.00,ENE,71,0.0,0.0,75,0.00,,,0.00,Wunderground v.1.15,2013-05-17 15:33:00,
2013-05-17 11:35:00,76.9,68.0,30.00,ENE,71,0.0,0.0,74,0.00,,,0.00,Wunderground v.1.15,2013-05-17 15:35:00,
2013-05-17 11:36:00,76.9,68.8,30.00,East,80,0.0,4.0,76,0.00,,,0.00,Wunderground v.1.15,2013-05-17 15:36:00,
2013-05-17 11:37:00,76.6,67.7,30.00,ENE,76,0.0,4.0,74,0.00,,,0.00,Wunderground v.1.15,2013-05-17 15:37:00,
2013-05-17 11:39:00,76.2,67.3,30.00,ENE,76,0.0,4.0,74,0.00,,,0.00,Wunderground v.1.15,2013-05-17 15:39:00,
2013-05-17 11:42:00,75.5,67.0,30.00,ENE,70,1.0,2.0,75,0.00,,,0.00,Wunderground v.1.15,2013-05-17 15:42:00,
2013-05-17 11:44:00,75.1,66.6,30.00,ENE,71,1.0,2.0,75,0.00,,,0.00,Wunderground v.1.15,2013-05-17 15:44:00,
2013-05-17 11:45:00,75.0,66.5,30.00,ENE,71,1.0,2.0,75,0.00,,,0.00,Wunderground v.1.15,2013-05-17 15:45:00,
2013-05-17 11:46:00,74.8,65.6,30.00,ENE,71,1.0,2.0,73,0.00,,,0.00,Wunderground v.1.15,2013-05-17 15:46:00,
2013-05-17 11:47:00,74.8,66.3,30.00,ENE,71,1.0,2.0,75,0.00,,,0.00,Wunderground v.1.15,2013-05-17 15:47:00,
2013-05-17 11:52:00,74.7,66.6,30.00,East,80,0.0,1.0,76,0.00,,,0.00,Wunderground v.1.15,2013-05-17 15:52:00,
2013-05-17 11:53:00,74.7,66.6,30.00,East,80,0.0,1.0,76,0.00,,,0.00,Wunderground v.1.15,2013-05-17 15:53:00,
2013-05-17 11:54:00,74.6,66.1,30.00,East,80,0.0,1.0,75,0.00,,,0.00,Wunderground v.1.15,2013-05-17 15:54:00,
2013-05-17 11:55:00,74.6,65.8,30.00,East,80,0.0,1.0,74,0.00,,,0.00,Wunderground v.1.15,2013-05-17 15:55:00,
2013-05-17 11:57:00,74.7,66.6,30.00,East,80,0.0,1.0,76,0.00,,,0.00,Wunderground v.1.15,2013-05-17 15:57:00,
2013-05-17 12:00:00,74.9,67.6,30.00,ENE,69,0.0,0.0,78,0.00,,,0.00,Wunderground v.1.15,2013-05-17 16:00:00,
2013-05-17 12:01:00,74.8,67.5,30.00,ENE,69,0.0,0.0,78,0.00,,,0.00,Wunderground v.1.15,2013-05-17 16:01:00,
2013-05-17 12:03:00,74.9,67.2,30.00,ENE,69,0.0,0.0,77,0.00,,,0.00,Wunderground v.1.15,2013-05-17 16:03:00,
2013-05-17 12:05:00,75.1,67.4,30.00,ENE,69,0.0,1.0,77,0.00,,,0.00,Wunderground v.1.15,2013-05-17 16:05:00,
2013-05-17 12:10:00,75.6,67.9,30.00,ENE,69,0.0,0.0,77,0.00,,,0.00,Wunderground v.1.15,2013-05-17 16:10:00,
2013-05-17 12:11:00,75.7,68.0,30.00,ENE,69,0.0,3.0,77,0.00,,,0.00,Wunderground v.1.15,2013-05-17 16:11:00,
2013-05-17 12:13:00,75.8,67.3,30.00,ENE,69,0.0,3.0,75,0.00,,,0.00,Wunderground v.1.15,2013-05-17 16:13:00,
2013-05-17 12:17:00,75.7,67.2,30.00,NE,44,0.0,3.0,75,0.00,,,0.00,Wunderground v.1.15,2013-05-17 16:17:00,
2013-05-17 12:20:00,76.0,68.3,30.00,NE,44,0.0,0.0,77,0.00,,,0.00,Wunderground v.1.15,2013-05-17 16:20:00,
2013-05-17 12:21:00,76.0,68.3,30.00,NE,44,0.0,2.0,77,0.00,,,0.00,Wunderground v.1.15,2013-05-17 16:21:00,
2013-05-17 12:24:00,76.1,68.0,30.00,NE,44,1.0,2.0,76,0.00,,,0.00,Wunderground v.1.15,2013-05-17 16:24:00,
2013-05-17 12:25:00,76.3,68.6,30.00,NE,44,1.0,2.0,77,0.00,,,0.00,Wunderground v.1.15,2013-05-17 16:25:00,
2013-05-17 12:26:00,76.7,70.1,30.00,NE,44,1.0,2.0,80,0.00,,,0.00,Wunderground v.1.15,2013-05-17 16:26:00,
2013-05-17 12:27:00,77.0,69.6,30.00,NE,44,1.0,2.0,78,0.00,,,0.00,Wunderground v.1.15,2013-05-17 16:27:00,
2013-05-17 12:28:00,77.2,69.4,30.00,NE,44,1.0,2.0,77,0.00,,,0.00,Wunderground v.1.15,2013-05-17 16:28:00,
2013-05-17 12:30:00,77.3,68.0,30.00,NE,43,1.0,1.0,73,0.00,,,0.00,Wunderground v.1.15,2013-05-17 16:30:00,
2013-05-17 12:31:00,77.5,68.2,30.00,NE,44,0.0,1.0,73,0.00,,,0.00,Wunderground v.1.15,2013-05-17 16:31:00,
2013-05-17 12:34:00,78.2,69.2,30.00,NE,44,0.0,1.0,74,0.00,,,0.00,Wunderground v.1.15,2013-05-17 16:34:00,
2013-05-17 12:35:00,78.4,69.4,30.00,NE,44,0.0,1.0,74,0.00,,,0.00,Wunderground v.1.15,2013-05-17 16:35:00,
2013-05-17 12:36:00,78.5,69.5,30.00,NE,44,0.0,1.0,74,0.00,,,0.00,Wunderground v.1.15,2013-05-17 16:36:00,
2013-05-17 12:39:00,78.7,70.5,30.00,NE,44,0.0,1.0,76,0.00,,,0.00,Wunderground v.1.15,2013-05-17 16:39:00,
2013-05-17 12:41:00,78.9,70.3,30.00,NE,44,0.0,3.0,75,0.00,,,0.00,Wunderground v.1.15,2013-05-17 16:41:00,
2013-05-17 12:45:00,78.7,68.9,30.00,NE,43,0.0,5.0,72,0.00,,,0.00,Wunderground v.1.15,2013-05-17 16:45:00,
2013-05-17 12:46:00,78.7,69.7,30.00,NE,56,1.0,5.0,74,0.00,,,0.00,Wunderground v.1.15,2013-05-17 16:46:00,
2013-05-17 12:47:00,78.5,68.7,30.00,NE,38,1.0,5.0,72,0.00,,,0.00,Wunderground v.1.15,2013-05-17 16:47:00,
2013-05-17 12:51:00,78.7,68.5,30.00,NNE,29,1.0,1.0,71,0.00,,,0.00,Wunderground v.1.15,2013-05-17 16:51:00,
2013-05-17 12:52:00,78.7,68.5,30.00,NNE,29,1.0,1.0,71,0.00,,,0.00,Wunderground v.1.15,2013-05-17 16:52:00,
2013-05-17 12:53:00,78.9,69.9,30.00,NNE,29,1.0,1.0,74,0.00,,,0.00,Wunderground v.1.15,2013-05-17 16:53:00,
2013-05-17 12:54:00,79.1,70.5,30.00,NNE,29,1.0,1.0,75,0.00,,,0.00,Wunderground v.1.15,2013-05-17 16:54:00,
2013-05-17 12:57:00,78.8,69.0,30.00,NNE,29,0.0,2.0,72,0.00,,,0.00,Wunderground v.1.15,2013-05-17 16:57:00,
2013-05-17 12:59:00,79.2,70.2,30.00,NNE,29,0.0,2.0,74,0.00,,,0.00,Wunderground v.1.15,2013-05-17 16:59:00,
2013-05-17 13:00:00,79.3,70.3,30.00,NNE,29,0.0,0.0,74,0.00,,,0.00,Wunderground v.1.15,2013-05-17 17:00:00,
2013-05-17 13:01:00,79.7,71.1,29.99,NNE,29,0.0,0.0,75,0.00,,,0.00,Wunderground v.1.15,2013-05-17 17:01:00,
2013-05-17 13:02:00,79.7,69.0,29.99,NNE,29,0.0,0.0,70,0.00,,,0.00,Wunderground v.1.15,2013-05-17 17:02:00,
2013-05-17 13:05:00,80.1,70.7,29.99,NNE,29,0.0,0.0,73,0.00,,,0.00,Wunderground v.1.15,2013-05-17 17:05:00,
2013-05-17 13:07:00,80.0,69.7,30.00,NNE,29,0.0,0.0,71,0.00,,,0.00,Wunderground v.1.15,2013-05-17 17:07:00,
2013-05-17 13:08:00,79.8,69.1,30.00,NNE,29,0.0,0.0,70,0.00,,,0.00,Wunderground v.1.15,2013-05-17 17:08:00,
2013-05-17 13:12:00,78.9,69.1,29.99,NNE,29,0.0,0.0,72,0.00,,,0.00,Wunderground v.1.15,2013-05-17 17:12:00,
2013-05-17 13:13:00,78.7,69.3,29.99,NNE,29,0.0,0.0,73,0.00,,,0.00,Wunderground v.1.15,2013-05-17 17:13:00,
2013-05-17 13:14:00,78.7,69.7,29.99,NE,38,0.0,4.0,74,0.00,,,0.00,Wunderground v.1.15,2013-05-17 17:14:00,
2013-05-17 13:15:00,78.5,69.5,29.99,East,90,0.0,4.0,74,0.00,,,0.00,Wunderground v.1.15,2013-05-17 17:15:00,
2013-05-17 13:20:00,79.2,70.6,29.99,East,85,0.0,0.0,75,0.00,,,0.00,Wunderground v.1.15,2013-05-17 17:20:00,
2013-05-17 13:22:00,79.7,71.8,29.99,ENE,74,0.0,3.0,77,0.00,,,0.00,Wunderground v.1.15,2013-05-17 17:22:00,
2013-05-17 13:23:00,79.7,69.9,29.99,ENE,66,0.0,3.0,72,0.00,,,0.00,Wunderground v.1.15,2013-05-17 17:23:00,
2013-05-17 13:26:00,79.9,70.5,29.99,East,80,1.0,3.0,73,0.00,,,0.00,Wunderground v.1.15,2013-05-17 17:26:00,
2013-05-17 13:28:00,80.1,69.4,29.99,East,80,1.0,3.0,70,0.00,,,0.00,Wunderground v.1.15,2013-05-17 17:28:00,
2013-05-17 13:31:00,80.3,70.9,29.99,East,80,1.0,1.0,73,0.00,,,0.00,Wunderground v.1.15,2013-05-17 17:31:00,
2013-05-17 13:32:00,80.5,70.6,29.99,ENE,64,1.0,4.0,72,0.00,,,0.00,Wunderground v.1.15,2013-05-17 17:32:00,
2013-05-17 13:37:00,79.9,69.7,29.98,ENE,63,1.0,4.0,71,0.00,,,0.00,Wunderground v.1.15,2013-05-17 17:37:00,
2013-05-17 13:38:00,80.0,70.6,29.99,ENE,69,1.0,4.0,73,0.00,,,0.00,Wunderground v.1.15,2013-05-17 17:38:00,
2013-05-17 13:39:00,80.0,70.2,29.98,ENE,67,1.0,4.0,72,0.00,,,0.00,Wunderground v.1.15,2013-05-17 17:39:00,
2013-05-17 13:41:00,79.7,69.0,29.98,ENE,67,1.0,1.0,70,0.00,,,0.00,Wunderground v.1.15,2013-05-17 17:41:00,
2013-05-17 13:43:00,80.0,70.2,29.98,ENE,67,1.0,1.0,72,0.00,,,0.00,Wunderground v.1.15,2013-05-17 17:43:00,
2013-05-17 13:44:00,80.2,71.6,29.98,ENE,67,0.0,1.0,75,0.00,,,0.00,Wunderground v.1.15,2013-05-17 17:44:00,
2013-05-17 13:45:00,80.5,72.2,29.98,ENE,67,0.0,1.0,76,0.00,,,0.00,Wunderground v.1.15,2013-05-17 17:45:00,
2013-05-17 13:48:00,80.7,69.6,29.98,NE,36,1.0,5.0,69,0.00,,,0.00,Wunderground v.1.15,2013-05-17 17:48:00,
2013-05-17 13:49:00,80.6,70.3,29.98,NE,48,1.0,5.0,71,0.00,,,0.00,Wunderground v.1.15,2013-05-17 17:49:00,
2013-05-17 13:51:00,80.3,71.3,29.98,NE,50,1.0,3.0,74,0.00,,,0.00,Wunderground v.1.15,2013-05-17 17:51:00,
2013-05-17 13:54:00,80.6,71.9,29.98,NE,50,1.0,3.0,75,0.00,,,0.00,Wunderground v.1.15,2013-05-17 17:54:00,
2013-05-17 13:55:00,80.6,70.7,29.98,NE,50,1.0,3.0,72,0.00,,,0.00,Wunderground v.1.15,2013-05-17 17:55:00,
2013-05-17 13:56:00,80.7,70.4,29.98,NE,50,1.0,3.0,71,0.00,,,0.00,Wunderground v.1.15,2013-05-17 17:56:00,
2013-05-17 13:57:00,80.7,70.8,29.98,ENE,57,1.0,3.0,72,0.00,,,0.00,Wunderground v.1.15,2013-05-17 17:57:00,
2013-05-17 14:02:00,80.7,70.8,29.98,ENE,65,1.0,3.0,72,0.00,,,0.00,Wunderground v.1.15,2013-05-17 18:02:00,
2013-05-17 14:03:00,80.4,69.3,29.98,ENE,65,1.0,3.0,69,0.00,,,0.00,Wunderground v.1.15,2013-05-17 18:03:00,
2013-05-17 14:04:00,80.2,69.5,29.98,ENE,65,1.0,3.0,70,0.00,,,0.00,Wunderground v.1.15,2013-05-17 18:04:00,
2013-05-17 14:06:00,80.5,69.8,29.97,ENE,64,1.0,3.0,70,0.00,,,0.00,Wunderground v.1.15,2013-05-17 18:06:00,
2013-05-17 14:08:00,80.7,70.8,29.97,NE,46,1.0,3.0,72,0.00,,,0.00,Wunderground v.1.15,2013-05-17 18:08:00,
2013-05-17 14:09:00,80.8,70.1,29.97,NE,46,1.0,3.0,70,0.00,,,0.00,Wunderground v.1.15,2013-05-17 18:09:00,
2013-05-17 14:10:00,81.1,71.2,29.97,NE,46,1.0,1.0,72,0.00,,,0.00,Wunderground v.1.15,2013-05-17 18:10:00,
2013-05-17 14:14:00,80.8,70.1,29.97,East,99,1.0,5.0,70,0.00,,,0.00,Wunderground v.1.15,2013-05-17 18:14:00,
2013-05-17 14:15:00,80.3,69.2,29.97,East,85,1.0,5.0,69,0.00,,,0.00,Wunderground v.1.15,2013-05-17 18:15:00,
2013-05-17 14:18:00,79.6,71.0,29.96,ENE,69,1.0,5.0,75,0.00,,,0.00,Wunderground v.1.15,2013-05-17 18:18:00,
2013-05-17 14:19:00,79.6,71.4,29.96,ENE,73,1.0,5.0,76,0.00,,,0.00,Wunderground v.1.15,2013-05-17 18:19:00,
2013-05-17 14:21:00,80.1,71.5,29.96,ENE,72,1.0,2.0,75,0.00,,,0.00,Wunderground v.1.15,2013-05-17 18:21:00,
2013-05-17 14:22:00,80.1,69.8,29.96,ENE,58,2.0,2.0,71,0.00,,,0.00,Wunderground v.1.15,2013-05-17 18:22:00,
2013-05-17 14:24:00,80.1,71.1,29.96,ENE,62,1.0,2.0,74,0.00,,,0.00,Wunderground v.1.15,2013-05-17 18:24:00,
2013-05-17 14:25:00,80.0,70.2,29.96,ENE,62,1.0,2.0,72,0.00,,,0.00,Wunderground v.1.15,2013-05-17 18:25:00,
2013-05-17 14:27:00,79.7,69.0,29.97,ENE,62,1.0,2.0,70,0.00,,,0.00,Wunderground v.1.15,2013-05-17 18:27:00,
2013-05-17 14:29:00,79.6,69.8,29.96,ENE,62,1.0,2.0,72,0.00,,,0.00,Wunderground v.1.15,2013-05-17 18:29:00,
2013-05-17 14:33:00,78.9,68.7,29.96,ENE,60,1.0,1.0,71,0.00,,,0.00,Wunderground v.1.15,2013-05-17 18:33:00,
2013-05-17 14:34:00,78.8,69.0,29.96,ENE,60,1.0,1.0,72,0.00,,,0.00,Wunderground v.1.15,2013-05-17 18:34:00,
2013-05-17 14:35:00,78.7,68.9,29.96,ENE,60,1.0,4.0,72,0.00,,,0.00,Wunderground v.1.15,2013-05-17 18:35:00,
2013-05-17 14:36:00,78.5,68.3,29.96,ENE,60,1.0,4.0,71,0.00,,,0.00,Wunderground v.1.15,2013-05-17 18:36:00,
2013-05-17 14:37:00,78.4,68.6,29.96,ENE,60,1.0,4.0,72,0.00,,,0.00,Wunderground v.1.15,2013-05-17 18:37:00,
2013-05-17 14:40:00,78.0,69.0,29.97,ENE,60,1.0,1.0,74,0.00,,,0.00,Wunderground v.1.15,2013-05-17 18:40:00,
2013-05-17 14:41:00,78.0,69.0,29.96,ENE,60,1.0,1.0,74,0.00,,,0.00,Wunderground v.1.15,2013-05-17 18:41:00,
2013-05-17 14:42:00,77.8,68.8,29.96,ENE,62,1.0,1.0,74,0.00,,,0.00,Wunderground v.1.15,2013-05-17 18:42:00,
2013-05-17 14:43:00,77.8,69.2,29.96,ENE,62,0.0,1.0,75,0.00,,,0.00,Wunderground v.1.15,2013-05-17 18:43:00,
2013-05-17 14:45:00,77.5,68.9,29.95,ENE,62,0.0,1.0,75,0.00,,,0.00,Wunderground v.1.15,2013-05-17 18:45:00,
2013-05-17 14:48:00,77.1,68.6,29.95,ENE,63,0.0,3.0,75,0.00,,,0.00,Wunderground v.1.15,2013-05-17 18:48:00,
2013-05-17 14:49:00,77.1,68.6,29.95,East,80,0.0,3.0,75,0.00,,,0.00,Wunderground v.1.15,2013-05-17 18:49:00,
2013-05-17 14:51:00,76.9,68.4,29.95,East,80,1.0,1.0,75,0.00,,,0.00,Wunderground v.1.15,2013-05-17 18:51:00,
2013-05-17 14:53:00,76.7,68.2,29.95,East,80,0.0,1.0,75,0.00,,,0.00,Wunderground v.1.15,2013-05-17 18:53:00,
2013-05-17 14:54:00,76.6,68.1,29.95,East,80,0.0,1.0,75,0.00,,,0.00,Wunderground v.1.15,2013-05-17 18:54:00,
2013-05-17 14:55:00,76.6,68.1,29.95,East,80,0.0,1.0,75,0.00,,,0.00,Wunderground v.1.15,2013-05-17 18:55:00,
2013-05-17 14:58:00,76.4,67.9,29.96,East,80,0.0,1.0,75,0.00,,,0.00,Wunderground v.1.15,2013-05-17 18:58:00,
2013-05-17 14:59:00,76.4,67.9,29.96,East,80,0.0,1.0,75,0.00,,,0.00,Wunderground v.1.15,2013-05-17 18:59:00,
2013-05-17 15:00:00,76.4,67.9,29.97,East,80,0.0,0.0,75,0.00,,,0.00,Wunderground v.1.15,2013-05-17 19:00:00,
2013-05-17 15:04:00,76.2,67.7,29.97,East,80,0.0,0.0,75,0.00,,,0.00,Wunderground v.1.15,2013-05-17 19:04:00,
2013-05-17 15:06:00,76.3,68.2,29.98,East,80,0.0,1.0,76,0.00,,,0.00,Wunderground v.1.15,2013-05-17 19:06:00,
2013-05-17 15:07:00,76.2,67.7,29.98,South,182,1.0,1.0,75,0.00,,,0.00,Wunderground v.1.15,2013-05-17 19:07:00,
2013-05-17 15:11:00,73.8,64.6,29.99,WSW,245,3.0,7.0,73,0.00,,,0.00,Wunderground v.1.15,2013-05-17 19:11:00,
2013-05-17 15:12:00,73.2,64.4,29.99,WSW,252,5.0,7.0,74,0.00,,,0.00,Wunderground v.1.15,2013-05-17 19:12:00,
2013-05-17 15:16:00,69.4,61.5,29.99,WSW,241,1.0,10.0,76,1.19,,,0.05,Wunderground v.1.15,2013-05-17 19:16:00,
2013-05-17 15:17:00,69.1,61.9,29.99,South,182,5.0,10.0,78,1.40,,,0.07,Wunderground v.1.15,2013-05-17 19:17:00,
2013-05-17 15:21:00,66.4,60.7,29.99,WSW,247,0.0,4.0,82,2.02,,,0.21,Wunderground v.1.15,2013-05-17 19:21:00,
2013-05-17 15:22:00,66.3,60.6,29.99,WSW,257,3.0,4.0,82,1.98,,,0.22,Wunderground v.1.15,2013-05-17 19:22:00,
2013-05-17 15:27:00,64.9,60.3,29.99,WNW,300,0.0,5.0,85,0.26,,,0.28,Wunderground v.1.15,2013-05-17 19:27:00,
2013-05-17 15:28:00,64.8,60.2,29.99,WNW,300,0.0,5.0,85,0.26,,,0.29,Wunderground v.1.15,2013-05-17 19:28:00,
2013-05-17 15:32:00,64.4,60.1,29.99,NNE,25,0.0,2.0,86,0.38,,,0.32,Wunderground v.1.15,2013-05-17 19:32:00,
2013-05-17 15:33:00,64.3,60.3,29.99,NNE,25,3.0,3.0,87,0.33,,,0.33,Wunderground v.1.15,2013-05-17 19:33:00,
2013-05-17 15:38:00,64.0,60.1,29.99,NE,41,3.0,6.0,87,0.18,,,0.34,Wunderground v.1.15,2013-05-17 19:38:00,
2013-05-17 15:43:00,63.8,60.2,29.98,NE,38,4.0,5.0,88,0.08,,,0.34,Wunderground v.1.15,2013-05-17 19:43:00,
2013-05-17 15:48:00,63.8,60.5,29.98,NE,40,2.0,6.0,89,0.05,,,0.34,Wunderground v.1.15,2013-05-17 19:48:00,
2013-05-17 15:49:00,63.8,60.5,29.98,NE,40,2.0,6.0,89,0.05,,,0.34,Wunderground v.1.15,2013-05-17 19:49:00,
2013-05-17 15:53:00,64.0,60.7,29.98,NE,40,0.0,2.0,89,0.04,,,0.35,Wunderground v.1.15,2013-05-17 19:53:00,
2013-05-17 15:54:00,64.0,60.7,29.98,NE,40,0.0,2.0,89,0.04,,,0.35,Wunderground v.1.15,2013-05-17 19:54:00,
2013-05-17 15:58:00,64.6,61.6,29.98,NE,40,0.0,2.0,90,0.04,,,0.35,Wunderground v.1.15,2013-05-17 19:58:00,
2013-05-17 15:59:00,64.6,61.6,29.98,NE,40,0.0,2.0,90,0.04,,,0.35,Wunderground v.1.15,2013-05-17 19:59:00,
2013-05-17 16:00:00,64.8,61.8,29.98,NE,40,0.0,0.0,90,0.04,,,0.35,Wunderground v.1.15,2013-05-17 20:00:00,
2013-05-17 16:04:00,66.1,63.4,29.98,NE,40,0.0,0.0,91,0.04,,,0.35,Wunderground v.1.15,2013-05-17 20:04:00,
2013-05-17 16:05:00,66.5,63.8,29.98,NE,40,0.0,0.0,91,0.04,,,0.35,Wunderground v.1.15,2013-05-17 20:05:00,
2013-05-17 16:09:00,67.4,64.4,29.98,NE,41,4.0,5.0,90,0.00,,,0.35,Wunderground v.1.15,2013-05-17 20:09:00,
2013-05-17 16:10:00,67.2,64.2,29.98,NE,41,0.0,1.0,90,0.00,,,0.35,Wunderground v.1.15,2013-05-17 20:10:00,
2013-05-17 16:14:00,67.0,64.0,29.98,NE,41,0.0,3.0,90,0.00,,,0.35,Wunderground v.1.15,2013-05-17 20:14:00,
2013-05-17 16:15:00,67.0,64.0,29.98,NE,41,0.0,3.0,90,0.00,,,0.35,Wunderground v.1.15,2013-05-17 20:15:00,
2013-05-17 16:16:00,67.1,64.1,29.98,NE,41,0.0,3.0,90,0.00,,,0.35,Wunderground v.1.15,2013-05-17 20:16:00,
2013-05-17 16:19:00,67.8,65.1,29.98,NE,41,0.0,3.0,91,0.00,,,0.35,Wunderground v.1.15,2013-05-17 20:19:00,
2013-05-17 16:20:00,67.8,65.1,29.98,NE,41,0.0,0.0,91,0.00,,,0.35,Wunderground v.1.15,2013-05-17 20:20:00,
2013-05-17 16:21:00,67.9,65.2,29.98,NE,41,0.0,1.0,91,0.00,,,0.35,Wunderground v.1.15,2013-05-17 20:21:00,
2013-05-17 16:25:00,68.2,65.2,29.98,NE,48,5.0,5.0,90,0.00,,,0.35,Wunderground v.1.15,2013-05-17 20:25:00,
2013-05-17 16:26:00,67.9,64.9,29.98,NE,46,0.0,5.0,90,0.00,,,0.35,Wunderground v.1.15,2013-05-17 20:26:00,
2013-05-17 16:30:00,67.5,64.5,29.98,NE,41,0.0,0.0,90,0.00,,,0.35,Wunderground v.1.15,2013-05-17 20:30:00,
2013-05-17 16:31:00,67.5,64.5,29.97,NE,40,0.0,4.0,90,0.00,,,0.35,Wunderground v.1.15,2013-05-17 20:31:00,
2013-05-17 16:35:00,67.9,65.2,29.97,NE,41,0.0,4.0,91,0.00,,,0.35,Wunderground v.1.15,2013-05-17 20:35:00,
2013-05-17 16:36:00,68.1,65.4,29.97,NE,41,0.0,4.0,91,0.00,,,0.35,Wunderground v.1.15,2013-05-17 20:36:00,
2013-05-17 16:40:00,68.3,65.3,29.97,NE,41,0.0,0.0,90,0.00,,,0.35,Wunderground v.1.15,2013-05-17 20:40:00,
2013-05-17 16:41:00,68.4,65.4,29.97,NE,41,0.0,0.0,90,0.00,,,0.35,Wunderground v.1.15,2013-05-17 20:41:00,
2013-05-17 16:42:00,68.5,65.8,29.97,NE,41,0.0,0.0,91,0.00,,,0.35,Wunderground v.1.15,2013-05-17 20:42:00,
2013-05-17 16:45:00,68.4,65.7,29.97,NE,41,0.0,0.0,91,0.00,,,0.35,Wunderground v.1.15,2013-05-17 20:45:00,
2013-05-17 16:46:00,68.4,65.7,29.97,NE,41,0.0,1.0,91,0.00,,,0.35,Wunderground v.1.15,2013-05-17 20:46:00,
2013-05-17 16:47:00,68.4,65.4,29.97,NE,41,0.0,1.0,90,0.00,,,0.35,Wunderground v.1.15,2013-05-17 20:47:00,
2013-05-17 16:51:00,68.1,65.1,29.97,NE,41,0.0,0.0,90,0.00,,,0.35,Wunderground v.1.15,2013-05-17 20:51:00,
2013-05-17 16:52:00,68.2,65.2,29.97,NE,41,0.0,0.0,90,0.00,,,0.35,Wunderground v.1.15,2013-05-17 20:52:00,
2013-05-17 16:56:00,68.6,65.5,29.97,NE,41,0.0,0.0,90,0.00,,,0.35,Wunderground v.1.15,2013-05-17 20:56:00,
2013-05-17 16:57:00,68.6,65.5,29.98,NE,41,0.0,0.0,90,0.00,,,0.35,Wunderground v.1.15,2013-05-17 20:57:00,
2013-05-17 17:01:00,69.2,66.5,29.97,NE,41,0.0,0.0,91,0.00,,,0.35,Wunderground v.1.15,2013-05-17 21:01:00,
2013-05-17 17:02:00,69.2,66.5,29.97,NE,41,0.0,0.0,91,0.00,,,0.35,Wunderground v.1.15,2013-05-17 21:02:00,
2013-05-17 17:03:00,69.2,66.1,29.97,NE,41,0.0,0.0,90,0.00,,,0.35,Wunderground v.1.15,2013-05-17 21:03:00,
2013-05-17 17:06:00,69.1,66.0,29.97,NE,41,0.0,0.0,90,0.00,,,0.35,Wunderground v.1.15,2013-05-17 21:06:00,
2013-05-17 17:07:00,69.1,66.0,29.97,NE,41,0.0,0.0,90,0.00,,,0.35,Wunderground v.1.15,2013-05-17 21:07:00,
2013-05-17 17:08:00,69.1,66.0,29.97,NE,41,0.0,0.0,90,0.00,,,0.35,Wunderground v.1.15,2013-05-17 21:08:00,
2013-05-17 17:11:00,69.2,66.1,29.97,NE,41,0.0,0.0,90,0.00,,,0.35,Wunderground v.1.15,2013-05-17 21:11:00,
2013-05-17 17:12:00,69.3,66.2,29.97,NE,41,0.0,0.0,90,0.00,,,0.35,Wunderground v.1.15,2013-05-17 21:12:00,
2013-05-17 17:13:00,69.3,66.2,29.97,NE,41,0.0,0.0,90,0.00,,,0.35,Wunderground v.1.15,2013-05-17 21:13:00,
2013-05-17 17:16:00,69.3,66.2,29.97,NE,41,0.0,1.0,90,0.00,,,0.35,Wunderground v.1.15,2013-05-17 21:16:00,
2013-05-17 17:17:00,69.3,66.2,29.97,NE,41,0.0,1.0,90,0.00,,,0.35,Wunderground v.1.15,2013-05-17 21:17:00,
2013-05-17 17:18:00,69.3,66.2,29.97,NE,41,0.0,1.0,90,0.00,,,0.35,Wunderground v.1.15,2013-05-17 21:18:00,
2013-05-17 17:21:00,69.2,66.1,29.97,NE,41,0.0,0.0,90,0.00,,,0.35,Wunderground v.1.15,2013-05-17 21:21:00,
2013-05-17 17:23:00,69.3,66.2,29.97,NE,41,0.0,0.0,90,0.00,,,0.35,Wunderground v.1.15,2013-05-17 21:23:00,
2013-05-17 17:27:00,69.3,66.2,29.97,NE,41,0.0,0.0,90,0.00,,,0.35,Wunderground v.1.15,2013-05-17 21:27:00,
2013-05-17 17:28:00,69.3,66.2,29.97,NE,41,0.0,0.0,90,0.00,,,0.35,Wunderground v.1.15,2013-05-17 21:28:00,
2013-05-17 17:32:00,69.3,66.2,29.98,NE,41,0.0,0.0,90,0.00,,,0.35,Wunderground v.1.15,2013-05-17 21:32:00,
2013-05-17 17:33:00,69.3,66.2,29.98,NE,41,0.0,0.0,90,0.00,,,0.35,Wunderground v.1.15,2013-05-17 21:33:00,
2013-05-17 17:37:00,69.2,66.1,29.97,NE,41,0.0,0.0,90,0.00,,,0.35,Wunderground v.1.15,2013-05-17 21:37:00,
2013-05-17 17:38:00,69.2,66.1,29.98,NE,41,0.0,0.0,90,0.00,,,0.35,Wunderground v.1.15,2013-05-17 21:38:00,
2013-05-17 17:39:00,69.2,66.1,29.98,NE,41,0.0,0.0,90,0.00,,,0.35,Wunderground v.1.15,2013-05-17 21:39:00,
2013-05-17 17:43:00,69.3,66.2,29.98,NE,41,0.0,1.0,90,0.00,,,0.35,Wunderground v.1.15,2013-05-17 21:43:00,
2013-05-17 17:44:00,69.4,66.3,29.98,NE,41,0.0,1.0,90,0.00,,,0.35,Wunderground v.1.15,2013-05-17 21:44:00,
2013-05-17 17:48:00,69.6,66.5,29.98,NE,41,0.0,1.0,90,0.00,,,0.35,Wunderground v.1.15,2013-05-17 21:48:00,
2013-05-17 17:49:00,69.7,66.6,29.98,NE,41,1.0,2.0,90,0.00,,,0.35,Wunderground v.1.15,2013-05-17 21:49:00,
2013-05-17 17:53:00,69.7,66.6,29.98,NE,41,0.0,0.0,90,0.00,,,0.35,Wunderground v.1.15,2013-05-17 21:53:00,
2013-05-17 17:54:00,69.7,66.6,29.98,NE,41,0.0,0.0,90,0.00,,,0.35,Wunderground v.1.15,2013-05-17 21:54:00,
2013-05-17 17:58:00,69.6,66.5,29.98,NE,41,0.0,0.0,90,0.00,,,0.35,Wunderground v.1.15,2013-05-17 21:58:00,
2013-05-17 17:59:00,69.6,66.5,29.98,NE,41,0.0,0.0,90,0.00,,,0.35,Wunderground v.1.15,2013-05-17 21:59:00,
2013-05-17 18:03:00,69.7,66.6,29.98,NE,41,0.0,1.0,90,0.00,,,0.35,Wunderground v.1.15,2013-05-17 22:03:00,
2013-05-17 18:04:00,69.7,66.6,29.98,NE,41,0.0,1.0,90,0.00,,,0.35,Wunderground v.1.15,2013-05-17 22:04:00,
2013-05-17 18:08:00,69.9,66.8,29.98,NE,41,0.0,1.0,90,0.00,,,0.35,Wunderground v.1.15,2013-05-17 22:08:00,
2013-05-17 18:09:00,69.9,66.8,29.98,NE,41,0.0,1.0,90,0.00,,,0.35,Wunderground v.1.15,2013-05-17 22:09:00,
2013-05-17 18:13:00,70.1,67.0,29.98,NE,41,0.0,0.0,90,0.00,,,0.35,Wunderground v.1.15,2013-05-17 22:13:00,
2013-05-17 18:14:00,70.1,67.0,29.98,NE,41,0.0,0.0,90,0.00,,,0.35,Wunderground v.1.15,2013-05-17 22:14:00,
2013-05-17 18:15:00,70.1,67.0,29.98,NE,41,0.0,0.0,90,0.00,,,0.35,Wunderground v.1.15,2013-05-17 22:15:00,
2013-05-17 18:18:00,70.1,66.7,29.98,NE,41,0.0,0.0,89,0.00,,,0.35,Wunderground v.1.15,2013-05-17 22:18:00,
2013-05-17 18:19:00,70.1,67.0,29.98,NE,41,0.0,0.0,90,0.00,,,0.35,Wunderground v.1.15,2013-05-17 22:19:00,
2013-05-17 18:20:00,70.1,67.0,29.97,NE,41,0.0,0.0,90,0.00,,,0.35,Wunderground v.1.15,2013-05-17 22:20:00,
2013-05-17 18:23:00,70.1,67.0,29.97,NE,41,0.0,0.0,90,0.00,,,0.35,Wunderground v.1.15,2013-05-17 22:23:00,
2013-05-17 18:24:00,70.1,67.0,29.97,NE,41,0.0,0.0,90,0.00,,,0.35,Wunderground v.1.15,2013-05-17 22:24:00,
2013-05-17 18:25:00,70.1,67.0,29.97,NE,41,0.0,0.0,90,0.00,,,0.35,Wunderground v.1.15,2013-05-17 22:25:00,
2013-05-17 18:28:00,70.2,67.1,29.97,NE,41,0.0,0.0,90,0.00,,,0.35,Wunderground v.1.15,2013-05-17 22:28:00,
2013-05-17 18:29:00,70.2,66.8,29.97,NE,41,0.0,0.0,89,0.00,,,0.35,Wunderground v.1.15,2013-05-17 22:29:00,
2013-05-17 18:30:00,70.1,66.7,29.97,NE,41,0.0,0.0,89,0.00,,,0.35,Wunderground v.1.15,2013-05-17 22:30:00,
2013-05-17 18:33:00,70.2,67.1,29.97,NE,41,0.0,0.0,90,0.00,,,0.35,Wunderground v.1.15,2013-05-17 22:33:00,
2013-05-17 18:35:00,70.2,67.1,29.97,NE,41,0.0,0.0,90,0.00,,,0.35,Wunderground v.1.15,2013-05-17 22:35:00,
2013-05-17 18:38:00,70.2,66.8,29.97,NE,41,0.0,0.0,89,0.00,,,0.35,Wunderground v.1.15,2013-05-17 22:38:00,
2013-05-17 18:40:00,70.1,66.7,29.97,NE,41,0.0,0.0,89,0.00,,,0.35,Wunderground v.1.15,2013-05-17 22:40:00,
2013-05-17 18:41:00,70.1,66.7,29.97,NE,41,0.0,0.0,89,0.00,,,0.35,Wunderground v.1.15,2013-05-17 22:41:00,
2013-05-17 18:44:00,70.1,66.7,29.97,NE,41,0.0,0.0,89,0.00,,,0.35,Wunderground v.1.15,2013-05-17 22:44:00,
2013-05-17 18:45:00,70.1,67.0,29.97,NE,41,0.0,0.0,90,0.00,,,0.35,Wunderground v.1.15,2013-05-17 22:45:00,
2013-05-17 18:46:00,70.1,67.0,29.97,NE,41,0.0,0.0,90,0.00,,,0.35,Wunderground v.1.15,2013-05-17 22:46:00,
2013-05-17 18:47:00,70.1,67.0,29.97,NE,41,0.0,0.0,90,0.00,,,0.35,Wunderground v.1.15,2013-05-17 22:47:00,
2013-05-17 18:49:00,70.1,67.0,29.97,NE,41,0.0,0.0,90,0.00,,,0.35,Wunderground v.1.15,2013-05-17 22:49:00,
2013-05-17 18:50:00,70.1,67.0,29.97,NE,41,0.0,0.0,90,0.00,,,0.35,Wunderground v.1.15,2013-05-17 22:50:00,
2013-05-17 18:51:00,70.1,67.0,29.97,NE,41,0.0,0.0,90,0.00,,,0.35,Wunderground v.1.15,2013-05-17 22:51:00,
2013-05-17 18:52:00,70.1,67.0,29.97,NE,41,0.0,0.0,90,0.00,,,0.35,Wunderground v.1.15,2013-05-17 22:52:00,
2013-05-17 18:54:00,70.1,67.0,29.97,NE,41,0.0,0.0,90,0.00,,,0.35,Wunderground v.1.15,2013-05-17 22:54:00,
2013-05-17 18:55:00,70.1,66.7,29.97,NE,41,0.0,0.0,89,0.00,,,0.35,Wunderground v.1.15,2013-05-17 22:55:00,
2013-05-17 18:56:00,70.1,66.7,29.97,NE,41,0.0,0.0,89,0.00,,,0.35,Wunderground v.1.15,2013-05-17 22:56:00,
2013-05-17 18:57:00,70.0,66.6,29.97,NE,41,0.0,0.0,89,0.00,,,0.35,Wunderground v.1.15,2013-05-17 22:57:00,
2013-05-17 18:59:00,70.0,66.9,29.97,NE,41,0.0,0.0,90,0.00,,,0.35,Wunderground v.1.15,2013-05-17 22:59:00,
2013-05-17 19:01:00,69.9,66.8,29.97,NE,41,0.0,0.0,90,0.00,,,0.35,Wunderground v.1.15,2013-05-17 23:01:00,
2013-05-17 19:03:00,69.9,66.8,29.97,NE,41,0.0,0.0,90,0.00,,,0.35,Wunderground v.1.15,2013-05-17 23:03:00,
2013-05-17 19:04:00,69.9,66.8,29.97,NE,41,0.0,0.0,90,0.00,,,0.35,Wunderground v.1.15,2013-05-17 23:04:00,
2013-05-17 19:06:00,69.9,66.8,29.97,NE,41,0.0,0.0,90,0.00,,,0.35,Wunderground v.1.15,2013-05-17 23:06:00,
2013-05-17 19:09:00,69.9,66.8,29.97,NE,41,0.0,0.0,90,0.00,,,0.35,Wunderground v.1.15,2013-05-17 23:09:00,
2013-05-17 19:11:00,69.8,66.7,29.98,NE,41,0.0,0.0,90,0.00,,,0.35,Wunderground v.1.15,2013-05-17 23:11:00,
2013-05-17 19:14:00,69.8,66.7,29.98,NE,41,0.0,0.0,90,0.00,,,0.35,Wunderground v.1.15,2013-05-17 23:14:00,
2013-05-17 19:16:00,69.7,66.6,29.98,NE,41,0.0,0.0,90,0.00,,,0.35,Wunderground v.1.15,2013-05-17 23:16:00,
2013-05-17 19:17:00,69.7,66.6,29.98,NE,41,0.0,0.0,90,0.00,,,0.35,Wunderground v.1.15,2013-05-17 23:17:00,
2013-05-17 19:19:00,69.7,66.6,29.98,NE,41,0.0,0.0,90,0.00,,,0.35,Wunderground v.1.15,2013-05-17 23:19:00,
2013-05-17 19:20:00,69.7,66.6,29.98,NE,41,0.0,0.0,90,0.00,,,0.35,Wunderground v.1.15,2013-05-17 23:20:00,
2013-05-17 19:21:00,69.8,66.7,29.98,NE,41,0.0,0.0,90,0.00,,,0.35,Wunderground v.1.15,2013-05-17 23:21:00,
2013-05-17 19:22:00,69.8,66.7,29.98,NE,41,0.0,0.0,90,0.00,,,0.35,Wunderground v.1.15,2013-05-17 23:22:00,
2013-05-17 19:24:00,69.8,66.7,29.98,NE,41,0.0,0.0,90,0.00,,,0.35,Wunderground v.1.15,2013-05-17 23:24:00,
2013-05-17 19:25:00,69.8,66.7,29.98,NE,41,0.0,0.0,90,0.00,,,0.35,Wunderground v.1.15,2013-05-17 23:25:00,
2013-05-17 19:26:00,69.8,66.7,29.98,NE,41,0.0,0.0,90,0.00,,,0.35,Wunderground v.1.15,2013-05-17 23:26:00,
2013-05-17 19:27:00,69.8,66.7,29.98,NE,41,0.0,0.0,90,0.00,,,0.35,Wunderground v.1.15,2013-05-17 23:27:00,
2013-05-17 19:28:00,69.8,66.7,29.98,NE,41,0.0,0.0,90,0.00,,,0.35,Wunderground v.1.15,2013-05-17 23:28:00,
2013-05-17 19:30:00,69.8,66.7,29.98,NE,41,0.0,0.0,90,0.00,,,0.35,Wunderground v.1.15,2013-05-17 23:30:00,
2013-05-17 19:32:00,69.8,66.7,29.98,NE,41,0.0,0.0,90,0.00,,,0.35,Wunderground v.1.15,2013-05-17 23:32:00,
2013-05-17 19:34:00,69.8,66.7,29.98,NE,41,0.0,0.0,90,0.00,,,0.35,Wunderground v.1.15,2013-05-17 23:34:00,
2013-05-17 19:35:00,69.8,66.7,29.98,NE,41,0.0,0.0,90,0.00,,,0.35,Wunderground v.1.15,2013-05-17 23:35:00,
2013-05-17 19:37:00,69.8,66.7,29.98,NE,41,0.0,0.0,90,0.00,,,0.35,Wunderground v.1.15,2013-05-17 23:37:00,
2013-05-17 19:38:00,69.7,66.6,29.98,NE,41,0.0,0.0,90,0.00,,,0.35,Wunderground v.1.15,2013-05-17 23:38:00,
2013-05-17 19:39:00,69.7,66.6,29.98,NE,41,0.0,0.0,90,0.00,,,0.35,Wunderground v.1.15,2013-05-17 23:39:00,
2013-05-17 19:40:00,69.7,66.6,29.98,NE,41,0.0,0.0,90,0.00,,,0.35,Wunderground v.1.15,2013-05-17 23:40:00,
2013-05-17 19:43:00,69.7,66.6,29.98,NE,41,0.0,0.0,90,0.00,,,0.35,Wunderground v.1.15,2013-05-17 23:43:00,
2013-05-17 19:44:00,69.7,66.6,29.98,NE,41,0.0,0.0,90,0.00,,,0.35,Wunderground v.1.15,2013-05-17 23:44:00,
2013-05-17 19:45:00,69.7,66.6,29.98,NE,41,0.0,0.0,90,0.00,,,0.35,Wunderground v.1.15,2013-05-17 23:45:00,
2013-05-17 19:48:00,69.7,66.6,29.98,NE,41,0.0,0.0,90,0.00,,,0.35,Wunderground v.1.15,2013-05-17 23:48:00,
2013-05-17 19:49:00,69.7,66.6,29.98,NE,41,0.0,0.0,90,0.00,,,0.35,Wunderground v.1.15,2013-05-17 23:49:00,
2013-05-17 19:50:00,69.7,66.6,29.98,NE,41,0.0,0.0,90,0.00,,,0.35,Wunderground v.1.15,2013-05-17 23:50:00,
2013-05-17 19:53:00,69.6,66.5,29.98,NE,41,0.0,0.0,90,0.00,,,0.35,Wunderground v.1.15,2013-05-17 23:53:00,
2013-05-17 19:54:00,69.5,66.4,29.98,NE,41,0.0,0.0,90,0.00,,,0.35,Wunderground v.1.15,2013-05-17 23:54:00,
2013-05-17 19:55:00,69.5,66.4,29.98,NE,41,0.0,0.0,90,0.00,,,0.35,Wunderground v.1.15,2013-05-17 23:55:00,
2013-05-17 19:56:00,69.5,66.4,29.98,NE,41,0.0,0.0,90,0.00,,,0.35,Wunderground v.1.15,2013-05-17 23:56:00,
2013-05-17 19:58:00,69.4,66.3,29.98,NE,41,0.0,0.0,90,0.00,,,0.35,Wunderground v.1.15,2013-05-17 23:58:00,
2013-05-17 19:59:00,69.4,66.3,29.98,NE,41,0.0,0.0,90,0.00,,,0.35,Wunderground v.1.15,2013-05-17 23:59:00,
2013-05-17 20:00:00,69.4,66.3,29.98,NE,41,0.0,0.0,90,0.00,,,0.35,Wunderground v.1.15,2013-05-18 00:00:00,
2013-05-17 20:01:00,69.4,66.3,29.99,NE,41,0.0,0.0,90,0.00,,,0.35,Wunderground v.1.15,2013-05-18 00:01:00,
2013-05-17 20:03:00,69.3,66.2,29.98,NE,41,0.0,0.0,90,0.00,,,0.35,Wunderground v.1.15,2013-05-18 00:03:00,
2013-05-17 20:04:00,69.3,66.2,29.99,NE,41,0.0,0.0,90,0.00,,,0.35,Wunderground v.1.15,2013-05-18 00:04:00,
2013-05-17 20:05:00,69.3,66.2,29.99,NE,41,0.0,0.0,90,0.00,,,0.35,Wunderground v.1.15,2013-05-18 00:05:00,
2013-05-17 20:06:00,69.3,66.2,29.99,NE,41,0.0,0.0,90,0.00,,,0.35,Wunderground v.1.15,2013-05-18 00:06:00,
2013-05-17 20:08:00,69.3,66.2,29.99,NE,41,0.0,0.0,90,0.00,,,0.35,Wunderground v.1.15,2013-05-18 00:08:00,
2013-05-17 20:09:00,69.3,66.2,29.99,NE,41,0.0,0.0,90,0.00,,,0.35,Wunderground v.1.15,2013-05-18 00:09:00,
2013-05-17 20:10:00,69.2,66.1,29.99,NE,41,0.0,0.0,90,0.00,,,0.35,Wunderground v.1.15,2013-05-18 00:10:00,
2013-05-17 20:11:00,69.2,66.1,29.99,NE,41,0.0,0.0,90,0.00,,,0.35,Wunderground v.1.15,2013-05-18 00:11:00,
2013-05-17 20:12:00,69.2,66.1,29.99,NE,41,0.0,0.0,90,0.00,,,0.35,Wunderground v.1.15,2013-05-18 00:12:00,
2013-05-17 20:14:00,69.2,66.1,29.99,NE,41,0.0,0.0,90,0.00,,,0.35,Wunderground v.1.15,2013-05-18 00:14:00,
2013-05-17 20:16:00,69.1,66.0,29.99,NE,41,0.0,0.0,90,0.00,,,0.35,Wunderground v.1.15,2013-05-18 00:16:00,
2013-05-17 20:17:00,69.1,66.0,29.99,NE,41,0.0,0.0,90,0.00,,,0.35,Wunderground v.1.15,2013-05-18 00:17:00,
2013-05-17 20:19:00,69.0,65.9,29.99,NE,41,0.0,0.0,90,0.00,,,0.35,Wunderground v.1.15,2013-05-18 00:19:00,
2013-05-17 20:20:00,69.0,65.9,29.99,NE,41,0.0,0.0,90,0.00,,,0.35,Wunderground v.1.15,2013-05-18 00:20:00,
2013-05-17 20:21:00,69.0,65.9,29.99,NE,41,0.0,0.0,90,0.00,,,0.35,Wunderground v.1.15,2013-05-18 00:21:00,
2013-05-17 20:22:00,68.9,65.8,29.99,NE,41,0.0,0.0,90,0.00,,,0.35,Wunderground v.1.15,2013-05-18 00:22:00,
2013-05-17 20:24:00,68.8,65.7,29.99,NE,41,0.0,0.0,90,0.00,,,0.35,Wunderground v.1.15,2013-05-18 00:24:00,
2013-05-17 20:25:00,68.8,65.7,29.99,NE,41,0.0,0.0,90,0.00,,,0.35,Wunderground v.1.15,2013-05-18 00:25:00,
2013-05-17 20:26:00,68.8,65.7,29.99,NE,41,0.0,0.0,90,0.00,,,0.35,Wunderground v.1.15,2013-05-18 00:26:00,
2013-05-17 20:28:00,68.8,65.7,29.99,NE,41,0.0,0.0,90,0.00,,,0.35,Wunderground v.1.15,2013-05-18 00:28:00,
2013-05-17 20:29:00,68.7,65.6,29.99,NE,41,0.0,0.0,90,0.00,,,0.35,Wunderground v.1.15,2013-05-18 00:29:00,
2013-05-17 20:30:00,68.7,65.6,29.99,NE,41,0.0,0.0,90,0.00,,,0.35,Wunderground v.1.15,2013-05-18 00:30:00,
2013-05-17 20:31:00,68.6,65.5,29.99,NE,41,0.0,0.0,90,0.00,,,0.35,Wunderground v.1.15,2013-05-18 00:31:00,
2013-05-17 20:33:00,68.6,65.5,29.99,NE,41,0.0,0.0,90,0.00,,,0.35,Wunderground v.1.15,2013-05-18 00:33:00,
2013-05-17 20:34:00,68.6,65.5,29.99,NE,41,0.0,0.0,90,0.00,,,0.35,Wunderground v.1.15,2013-05-18 00:34:00,
2013-05-17 20:35:00,68.5,65.4,29.99,NE,41,0.0,0.0,90,0.00,,,0.35,Wunderground v.1.15,2013-05-18 00:35:00,
2013-05-17 20:37:00,68.5,65.4,29.99,NE,41,0.0,0.0,90,0.00,,,0.35,Wunderground v.1.15,2013-05-18 00:37:00,
2013-05-17 20:38:00,68.5,65.4,29.99,NE,41,0.0,0.0,90,0.00,,,0.35,Wunderground v.1.15,2013-05-18 00:38:00,
2013-05-17 20:39:00,68.5,65.4,29.99,NE,41,0.0,0.0,90,0.00,,,0.35,Wunderground v.1.15,2013-05-18 00:39:00,
2013-05-17 20:40:00,68.5,65.4,29.99,NE,41,0.0,0.0,90,0.00,,,0.35,Wunderground v.1.15,2013-05-18 00:40:00,
2013-05-17 20:43:00,68.4,65.4,29.99,NE,41,0.0,0.0,90,0.00,,,0.35,Wunderground v.1.15,2013-05-18 00:43:00,
2013-05-17 20:44:00,68.4,65.4,29.99,NE,41,0.0,0.0,90,0.00,,,0.35,Wunderground v.1.15,2013-05-18 00:44:00,
2013-05-17 20:45:00,68.3,65.3,29.99,NE,41,0.0,0.0,90,0.00,,,0.35,Wunderground v.1.15,2013-05-18 00:45:00,
2013-05-17 20:48:00,68.3,65.3,29.99,NE,41,0.0,0.0,90,0.00,,,0.35,Wunderground v.1.15,2013-05-18 00:48:00,
2013-05-17 20:49:00,68.2,65.2,29.99,NE,41,0.0,0.0,90,0.00,,,0.35,Wunderground v.1.15,2013-05-18 00:49:00,
2013-05-17 20:50:00,68.2,65.2,29.99,NE,41,0.0,0.0,90,0.00,,,0.35,Wunderground v.1.15,2013-05-18 00:50:00,
2013-05-17 20:53:00,68.1,65.1,29.99,NE,41,0.0,0.0,90,0.00,,,0.35,Wunderground v.1.15,2013-05-18 00:53:00,
2013-05-17 20:54:00,68.1,65.1,29.99,NE,41,0.0,0.0,90,0.00,,,0.35,Wunderground v.1.15,2013-05-18 00:54:00,
2013-05-17 20:55:00,68.0,65.0,29.99,NE,41,0.0,0.0,90,0.00,,,0.35,Wunderground v.1.15,2013-05-18 00:55:00,
2013-05-17 20:58:00,67.9,64.9,29.99,NE,41,0.0,0.0,90,0.00,,,0.35,Wunderground v.1.15,2013-05-18 00:58:00,
2013-05-17 21:00:00,67.9,64.9,29.99,NE,41,0.0,0.0,90,0.00,,,0.35,Wunderground v.1.15,2013-05-18 01:00:00,
2013-05-17 21:01:00,67.9,64.9,29.99,NE,41,0.0,0.0,90,0.00,,,0.35,Wunderground v.1.15,2013-05-18 01:01:00,
2013-05-17 21:03:00,67.7,64.7,29.99,NE,41,0.0,1.0,90,0.00,,,0.35,Wunderground v.1.15,2013-05-18 01:03:00,
2013-05-17 21:04:00,67.7,64.7,29.99,NE,41,0.0,1.0,90,0.00,,,0.35,Wunderground v.1.15,2013-05-18 01:04:00,
2013-05-17 21:05:00,67.7,64.7,29.99,NE,41,0.0,1.0,90,0.00,,,0.35,Wunderground v.1.15,2013-05-18 01:05:00,
2013-05-17 21:06:00,67.6,64.6,29.99,NE,41,0.0,1.0,90,0.00,,,0.35,Wunderground v.1.15,2013-05-18 01:06:00,
2013-05-17 21:09:00,67.5,64.5,29.99,NE,41,0.0,1.0,90,0.00,,,0.35,Wunderground v.1.15,2013-05-18 01:09:00,
2013-05-17 21:10:00,67.5,64.5,29.99,NE,41,0.0,0.0,90,0.00,,,0.35,Wunderground v.1.15,2013-05-18 01:10:00,
2013-05-17 21:11:00,67.5,64.5,29.99,NE,41,0.0,0.0,90,0.00,,,0.35,Wunderground v.1.15,2013-05-18 01:11:00,
2013-05-17 21:12:00,67.5,64.5,29.99,NE,41,0.0,2.0,90,0.00,,,0.35,Wunderground v.1.15,2013-05-18 01:12:00,
2013-05-17 21:14:00,67.5,64.5,29.99,NE,41,0.0,2.0,90,0.00,,,0.35,Wunderground v.1.15,2013-05-18 01:14:00,
2013-05-17 21:15:00,67.5,64.5,29.99,NE,41,0.0,2.0,90,0.00,,,0.35,Wunderground v.1.15,2013-05-18 01:15:00,
2013-05-17 21:16:00,67.5,64.5,29.99,NE,41,0.0,2.0,90,0.00,,,0.35,Wunderground v.1.15,2013-05-18 01:16:00,
2013-05-17 21:17:00,67.5,64.5,30.00,NE,41,0.0,2.0,90,0.00,,,0.35,Wunderground v.1.15,2013-05-18 01:17:00,
2013-05-17 21:19:00,67.5,64.5,29.99,NE,41,0.0,2.0,90,0.00,,,0.35,Wunderground v.1.15,2013-05-18 01:19:00,
2013-05-17 21:20:00,67.5,64.5,29.99,NE,41,0.0,0.0,90,0.00,,,0.35,Wunderground v.1.15,2013-05-18 01:20:00,
2013-05-17 21:21:00,67.5,64.5,29.99,NE,41,0.0,0.0,90,0.00,,,0.35,Wunderground v.1.15,2013-05-18 01:21:00,
2013-05-17 21:22:00,67.5,64.5,29.99,NE,41,0.0,0.0,90,0.00,,,0.35,Wunderground v.1.15,2013-05-18 01:22:00,
2013-05-17 21:24:00,67.5,64.5,29.99,NE,41,0.0,0.0,90,0.00,,,0.35,Wunderground v.1.15,2013-05-18 01:24:00,
2013-05-17 21:25:00,67.5,64.5,29.99,NE,41,0.0,0.0,90,0.00,,,0.35,Wunderground v.1.15,2013-05-18 01:25:00,
2013-05-17 21:26:00,67.5,64.5,30.00,NE,41,0.0,0.0,90,0.00,,,0.35,Wunderground v.1.15,2013-05-18 01:26:00,
2013-05-17 21:27:00,67.5,64.5,29.99,NE,41,0.0,0.0,90,0.00,,,0.35,Wunderground v.1.15,2013-05-18 01:27:00,
2013-05-17 21:29:00,67.4,64.4,30.00,NE,47,0.0,0.0,90,0.00,,,0.35,Wunderground v.1.15,2013-05-18 01:29:00,
2013-05-17 21:30:00,67.4,64.4,30.00,NE,47,0.0,0.0,90,0.00,,,0.35,Wunderground v.1.15,2013-05-18 01:30:00,
2013-05-17 21:31:00,67.4,64.4,30.00,NE,47,0.0,0.0,90,0.00,,,0.35,Wunderground v.1.15,2013-05-18 01:31:00,
2013-05-17 21:32:00,67.4,64.4,30.00,NE,47,0.0,0.0,90,0.00,,,0.35,Wunderground v.1.15,2013-05-18 01:32:00,
2013-05-17 21:34:00,67.4,64.4,30.00,NE,47,0.0,0.0,90,0.00,,,0.35,Wunderground v.1.15,2013-05-18 01:34:00,
2013-05-17 21:36:00,67.4,64.4,30.00,NE,47,0.0,0.0,90,0.00,,,0.35,Wunderground v.1.15,2013-05-18 01:36:00,
2013-05-17 21:37:00,67.4,64.4,30.00,NE,47,0.0,0.0,90,0.00,,,0.35,Wunderground v.1.15,2013-05-18 01:37:00,
2013-05-17 21:40:00,67.4,64.4,30.00,NE,47,0.0,0.0,90,0.00,,,0.35,Wunderground v.1.15,2013-05-18 01:40:00,
2013-05-17 21:41:00,67.4,64.4,30.00,NE,47,0.0,0.0,90,0.00,,,0.35,Wunderground v.1.15,2013-05-18 01:41:00,
2013-05-17 21:42:00,67.4,64.4,30.00,NE,47,0.0,0.0,90,0.00,,,0.35,Wunderground v.1.15,2013-05-18 01:42:00,
2013-05-17 21:45:00,67.4,64.4,30.00,NE,47,0.0,0.0,90,0.00,,,0.35,Wunderground v.1.15,2013-05-18 01:45:00,
2013-05-17 21:46:00,67.4,64.4,30.00,NE,47,0.0,0.0,90,0.00,,,0.35,Wunderground v.1.15,2013-05-18 01:46:00,
2013-05-17 21:47:00,67.4,64.4,30.00,NE,47,0.0,0.0,90,0.00,,,0.35,Wunderground v.1.15,2013-05-18 01:47:00,
2013-05-17 21:50:00,67.3,64.3,30.00,NE,47,0.0,0.0,90,0.00,,,0.35,Wunderground v.1.15,2013-05-18 01:50:00,
2013-05-17 21:51:00,67.3,64.3,30.00,NE,47,0.0,0.0,90,0.00,,,0.35,Wunderground v.1.15,2013-05-18 01:51:00,
2013-05-17 21:52:00,67.2,64.2,30.00,NE,47,0.0,0.0,90,0.00,,,0.35,Wunderground v.1.15,2013-05-18 01:52:00,
2013-05-17 21:53:00,67.2,64.2,30.00,NE,47,0.0,0.0,90,0.00,,,0.35,Wunderground v.1.15,2013-05-18 01:53:00,
2013-05-17 21:55:00,67.1,64.1,30.00,NE,47,0.0,0.0,90,0.00,,,0.35,Wunderground v.1.15,2013-05-18 01:55:00,
2013-05-17 21:56:00,67.1,64.1,30.00,NE,47,0.0,0.0,90,0.00,,,0.35,Wunderground v.1.15,2013-05-18 01:56:00,
2013-05-17 21:57:00,67.1,64.1,30.00,NE,47,0.0,0.0,90,0.00,,,0.35,Wunderground v.1.15,2013-05-18 01:57:00,
2013-05-17 21:58:00,67.1,64.1,30.00,NE,47,0.0,0.0,90,0.00,,,0.35,Wunderground v.1.15,2013-05-18 01:58:00,
2013-05-17 21:59:00,67.1,64.1,30.00,NE,47,0.0,0.0,90,0.00,,,0.35,Wunderground v.1.15,2013-05-18 01:59:00,
2013-05-17 22:01:00,67.1,64.1,30.00,NE,47,0.0,0.0,90,0.00,,,0.35,Wunderground v.1.15,2013-05-18 02:01:00,
2013-05-17 22:02:00,67.1,64.1,30.00,NE,47,0.0,0.0,90,0.00,,,0.35,Wunderground v.1.15,2013-05-18 02:02:00,
2013-05-17 22:03:00,67.1,64.1,30.00,NE,47,0.0,0.0,90,0.00,,,0.35,Wunderground v.1.15,2013-05-18 02:03:00,
2013-05-17 22:04:00,67.1,64.1,30.00,NE,47,0.0,0.0,90,0.00,,,0.35,Wunderground v.1.15,2013-05-18 02:04:00,
2013-05-17 22:06:00,67.0,64.0,30.00,NE,47,0.0,0.0,90,0.00,,,0.35,Wunderground v.1.15,2013-05-18 02:06:00,
2013-05-17 22:07:00,67.0,64.0,30.00,NE,47,0.0,0.0,90,0.00,,,0.35,Wunderground v.1.15,2013-05-18 02:07:00,
2013-05-17 22:08:00,67.0,64.0,30.00,NE,47,0.0,0.0,90,0.00,,,0.35,Wunderground v.1.15,2013-05-18 02:08:00,
2013-05-17 22:09:00,67.0,64.0,30.00,NE,47,0.0,0.0,90,0.00,,,0.35,Wunderground v.1.15,2013-05-18 02:09:00,
2013-05-17 22:11:00,66.9,63.9,30.00,NE,47,0.0,0.0,90,0.00,,,0.35,Wunderground v.1.15,2013-05-18 02:11:00,
2013-05-17 22:12:00,66.9,63.9,30.00,NE,47,0.0,0.0,90,0.00,,,0.35,Wunderground v.1.15,2013-05-18 02:12:00,
2013-05-17 22:13:00,66.9,63.9,30.00,NE,47,0.0,0.0,90,0.00,,,0.35,Wunderground v.1.15,2013-05-18 02:13:00,
2013-05-17 22:14:00,66.8,63.8,30.00,NE,47,0.0,0.0,90,0.00,,,0.35,Wunderground v.1.15,2013-05-18 02:14:00,
2013-05-17 22:17:00,66.8,63.8,30.00,NE,47,0.0,0.0,90,0.00,,,0.35,Wunderground v.1.15,2013-05-18 02:17:00,
2013-05-17 22:18:00,66.8,63.8,30.00,NE,47,0.0,0.0,90,0.00,,,0.35,Wunderground v.1.15,2013-05-18 02:18:00,
2013-05-17 22:19:00,66.8,63.8,30.00,NE,47,0.0,0.0,90,0.00,,,0.35,Wunderground v.1.15,2013-05-18 02:19:00,
2013-05-17 22:22:00,66.8,63.8,30.00,NE,47,0.0,0.0,90,0.00,,,0.35,Wunderground v.1.15,2013-05-18 02:22:00,
2013-05-17 22:23:00,66.7,63.7,30.00,NE,47,0.0,0.0,90,0.00,,,0.35,Wunderground v.1.15,2013-05-18 02:23:00,
2013-05-17 22:24:00,66.7,63.7,30.00,NE,47,0.0,0.0,90,0.00,,,0.35,Wunderground v.1.15,2013-05-18 02:24:00,
2013-05-17 22:27:00,66.7,63.7,30.00,NE,47,0.0,0.0,90,0.00,,,0.35,Wunderground v.1.15,2013-05-18 02:27:00,
2013-05-17 22:28:00,66.6,63.6,30.01,NE,47,0.0,0.0,90,0.00,,,0.35,Wunderground v.1.15,2013-05-18 02:28:00,
2013-05-17 22:29:00,66.6,63.6,30.00,NE,47,0.0,0.0,90,0.00,,,0.35,Wunderground v.1.15,2013-05-18 02:29:00,
2013-05-17 22:30:00,66.6,63.6,30.00,NE,47,0.0,0.0,90,0.00,,,0.35,Wunderground v.1.15,2013-05-18 02:30:00,
2013-05-17 22:32:00,66.5,63.5,30.00,NE,47,0.0,0.0,90,0.00,,,0.35,Wunderground v.1.15,2013-05-18 02:32:00,
2013-05-17 22:33:00,66.5,63.5,30.00,NE,47,0.0,0.0,90,0.00,,,0.35,Wunderground v.1.15,2013-05-18 02:33:00,
2013-05-17 22:35:00,66.5,63.5,30.00,NE,47,0.0,0.0,90,0.00,,,0.35,Wunderground v.1.15,2013-05-18 02:35:00,
2013-05-17 22:37:00,66.4,63.4,30.00,NE,47,0.0,0.0,90,0.00,,,0.35,Wunderground v.1.15,2013-05-18 02:37:00,
2013-05-17 22:38:00,66.4,63.4,30.01,NE,47,0.0,0.0,90,0.00,,,0.35,Wunderground v.1.15,2013-05-18 02:38:00,
2013-05-17 22:39:00,66.4,63.4,30.00,NE,47,0.0,0.0,90,0.00,,,0.35,Wunderground v.1.15,2013-05-18 02:39:00,
2013-05-17 22:40:00,66.4,63.4,30.00,NE,47,0.0,0.0,90,0.00,,,0.35,Wunderground v.1.15,2013-05-18 02:40:00,
2013-05-17 22:42:00,66.3,63.3,30.01,NE,47,0.0,0.0,90,0.00,,,0.35,Wunderground v.1.15,2013-05-18 02:42:00,
2013-05-17 22:43:00,66.3,63.3,30.01,NE,47,0.0,0.0,90,0.00,,,0.35,Wunderground v.1.15,2013-05-18 02:43:00,
2013-05-17 22:44:00,66.3,63.3,30.01,NE,47,0.0,0.0,90,0.00,,,0.35,Wunderground v.1.15,2013-05-18 02:44:00,
2013-05-17 22:45:00,66.3,63.3,30.01,NE,47,0.0,0.0,90,0.00,,,0.35,Wunderground v.1.15,2013-05-18 02:45:00,
2013-05-17 22:48:00,66.2,63.2,30.01,NE,47,0.0,0.0,90,0.00,,,0.35,Wunderground v.1.15,2013-05-18 02:48:00,
2013-05-17 22:49:00,66.2,63.2,30.01,NE,47,0.0,0.0,90,0.00,,,0.35,Wunderground v.1.15,2013-05-18 02:49:00,
2013-05-17 22:50:00,66.2,63.2,30.01,NE,47,0.0,0.0,90,0.00,,,0.35,Wunderground v.1.15,2013-05-18 02:50:00,
2013-05-17 22:53:00,66.2,63.2,30.01,NE,47,0.0,0.0,90,0.00,,,0.35,Wunderground v.1.15,2013-05-18 02:53:00,
2013-05-17 22:55:00,66.2,63.5,30.01,NE,47,0.0,0.0,91,0.00,,,0.35,Wunderground v.1.15,2013-05-18 02:55:00,
2013-05-17 22:56:00,66.2,63.5,30.01,NE,47,0.0,0.0,91,0.00,,,0.35,Wunderground v.1.15,2013-05-18 02:56:00,
2013-05-17 22:58:00,66.2,63.5,30.01,NE,47,0.0,0.0,91,0.00,,,0.35,Wunderground v.1.15,2013-05-18 02:58:00,
2013-05-17 23:00:00,66.2,63.5,30.01,NE,47,0.0,0.0,91,0.00,,,0.35,Wunderground v.1.15,2013-05-18 03:00:00,
2013-05-17 23:01:00,66.2,63.5,30.01,NE,47,0.0,0.0,91,0.00,,,0.35,Wunderground v.1.15,2013-05-18 03:01:00,
2013-05-17 23:03:00,66.2,63.5,30.01,NE,47,0.0,0.0,91,0.00,,,0.35,Wunderground v.1.15,2013-05-18 03:03:00,
2013-05-17 23:05:00,66.2,63.5,30.01,NE,47,0.0,0.0,91,0.00,,,0.35,Wunderground v.1.15,2013-05-18 03:05:00,
2013-05-17 23:06:00,66.2,63.5,30.01,NE,47,0.0,0.0,91,0.00,,,0.35,Wunderground v.1.15,2013-05-18 03:06:00,
2013-05-17 23:08:00,66.2,63.5,30.01,NE,47,0.0,0.0,91,0.00,,,0.35,Wunderground v.1.15,2013-05-18 03:08:00,
2013-05-17 23:10:00,66.1,63.4,30.01,NE,47,0.0,0.0,91,0.00,,,0.35,Wunderground v.1.15,2013-05-18 03:10:00,
2013-05-17 23:11:00,66.1,63.1,30.01,NE,47,0.0,0.0,90,0.00,,,0.35,Wunderground v.1.15,2013-05-18 03:11:00,
2013-05-17 23:13:00,66.1,63.1,30.01,NE,47,0.0,0.0,90,0.00,,,0.35,Wunderground v.1.15,2013-05-18 03:13:00,
2013-05-17 23:15:00,66.1,63.1,30.01,NE,47,0.0,0.0,90,0.00,,,0.35,Wunderground v.1.15,2013-05-18 03:15:00,
2013-05-17 23:16:00,66.1,63.1,30.01,NE,47,0.0,1.0,90,0.00,,,0.35,Wunderground v.1.15,2013-05-18 03:16:00,
2013-05-17 23:17:00,66.0,63.0,30.01,NE,47,0.0,1.0,90,0.00,,,0.35,Wunderground v.1.15,2013-05-18 03:17:00,
2013-05-17 23:18:00,66.0,63.0,30.01,NE,47,0.0,1.0,90,0.00,,,0.35,Wunderground v.1.15,2013-05-18 03:18:00,
2013-05-17 23:20:00,66.0,63.3,30.01,NE,47,0.0,0.0,91,0.00,,,0.35,Wunderground v.1.15,2013-05-18 03:20:00,
2013-05-17 23:21:00,66.0,63.3,30.01,NE,47,0.0,0.0,91,0.00,,,0.35,Wunderground v.1.15,2013-05-18 03:21:00,
2013-05-17 23:22:00,66.0,63.3,30.01,NE,47,0.0,0.0,91,0.00,,,0.35,Wunderground v.1.15,2013-05-18 03:22:00,
2013-05-17 23:23:00,66.0,63.3,30.01,NE,47,0.0,0.0,91,0.00,,,0.35,Wunderground v.1.15,2013-05-18 03:23:00,
2013-05-17 23:25:00,66.0,63.3,30.01,NE,47,0.0,0.0,91,0.00,,,0.35,Wunderground v.1.15,2013-05-18 03:25:00,
2013-05-17 23:26:00,65.9,63.2,30.01,NE,47,0.0,0.0,91,0.00,,,0.35,Wunderground v.1.15,2013-05-18 03:26:00,
2013-05-17 23:27:00,65.9,62.9,30.01,NE,47,0.0,0.0,90,0.00,,,0.35,Wunderground v.1.15,2013-05-18 03:27:00,
2013-05-17 23:28:00,65.9,62.9,30.01,NE,47,0.0,0.0,90,0.00,,,0.35,Wunderground v.1.15,2013-05-18 03:28:00,
2013-05-17 23:31:00,65.9,63.2,30.00,NE,47,0.0,0.0,91,0.00,,,0.35,Wunderground v.1.15,2013-05-18 03:31:00,
2013-05-17 23:32:00,65.9,63.2,30.01,NE,47,0.0,0.0,91,0.00,,,0.35,Wunderground v.1.15,2013-05-18 03:32:00,
2013-05-17 23:34:00,65.9,63.2,30.01,NE,47,0.0,0.0,91,0.00,,,0.35,Wunderground v.1.15,2013-05-18 03:34:00,
2013-05-17 23:36:00,65.8,63.1,30.01,NE,47,0.0,0.0,91,0.00,,,0.35,Wunderground v.1.15,2013-05-18 03:36:00,
2013-05-17 23:38:00,65.8,63.1,30.01,NE,47,0.0,0.0,91,0.00,,,0.35,Wunderground v.1.15,2013-05-18 03:38:00,
2013-05-17 23:39:00,65.8,63.1,30.01,NE,47,0.0,0.0,91,0.00,,,0.35,Wunderground v.1.15,2013-05-18 03:39:00,
2013-05-17 23:41:00,65.7,63.0,30.00,NE,47,0.0,0.0,91,0.00,,,0.35,Wunderground v.1.15,2013-05-18 03:41:00,
2013-05-17 23:43:00,65.7,63.0,30.00,NE,47,0.0,0.0,91,0.00,,,0.35,Wunderground v.1.15,2013-05-18 03:43:00,
2013-05-17 23:45:00,65.7,63.0,30.00,NE,47,0.0,0.0,91,0.00,,,0.35,Wunderground v.1.15,2013-05-18 03:45:00,
2013-05-17 23:46:00,65.6,62.9,30.00,NE,47,0.0,0.0,91,0.00,,,0.35,Wunderground v.1.15,2013-05-18 03:46:00,
2013-05-17 23:48:00,65.6,62.9,30.01,NE,47,0.0,0.0,91,0.00,,,0.35,Wunderground v.1.15,2013-05-18 03:48:00,
2013-05-17 23:50:00,65.6,62.9,30.01,NE,47,0.0,0.0,91,0.00,,,0.35,Wunderground v.1.15,2013-05-18 03:50:00,
2013-05-17 23:51:00,65.6,62.9,30.00,NE,47,0.0,0.0,91,0.00,,,0.35,Wunderground v.1.15,2013-05-18 03:51:00,
2013-05-17 23:52:00,65.6,62.9,30.00,NE,47,0.0,0.0,91,0.00,,,0.35,Wunderground v.1.15,2013-05-18 03:52:00,
2013-05-17 23:53:00,65.6,62.9,30.00,NE,47,0.0,0.0,91,0.00,,,0.35,Wunderground v.1.15,2013-05-18 03:53:00,
2013-05-17 23:55:00,65.5,62.8,30.01,NE,47,1.0,1.0,91,0.00,,,0.35,Wunderground v.1.15,2013-05-18 03:55:00,
2013-05-17 23:56:00,65.5,62.8,30.00,NE,47,0.0,1.0,91,0.00,,,0.35,Wunderground v.1.15,2013-05-18 03:56:00,
2013-05-17 23:57:00,65.5,63.1,30.00,NE,47,0.0,1.0,92,0.00,,,0.35,Wunderground v.1.15,2013-05-18 03:57:00,
2013-05-17 23:58:00,65.5,62.5,30.01,NE,47,0.0,1.0,90,0.00,,,0.35,Wunderground v.1.15,2013-05-18 03:58:00,